                ,  0.675,  0.825,  0.975,  1.125,  1.275,  1.425,  1.575,  1.725,  1.875,  2.025,  2.175,  2.325,  2.475,  2.625,  2.775,  2.925,  3.075,  3.225,  3.375,  3.525,  3.675,  3.825,  3.975,  4.125,  4.275,  4.425,  4.575,  4.725,  4.875,  5.025,  5.175,  5.325,  5.475,  5.625,  5.775,  5.925,  6.075,  6.225,  6.375,  6.525,  6.675,  6.825,  6.975,  7.125,  7.275,  7.425,  7.575,  7.725,  7.875,  8.025,  8.175,  8.325,  8.475,  8.625,  8.775,  8.925,  9.075,  9.225,  9.375,  9.525,  9.675,  9.825,  9.975
2001/05/27 00:00,   -0.0,   -0.0,    0.0,   -0.1,   -0.3,   -0.6,   -0.7,   -0.7,   -0.7,   -0.4,   -0.5,   -0.1,   -0.2,   -0.2,   -0.2,    0.1,    0.3,    0.2,   -0.0,   -0.3,    0.1,   -0.3,   -0.2,   -0.7,   -0.4,  999.0,    0.3,    0.1,    0.3,    0.1,    0.1,    0.2,    0.5,  999.0,  999.0,  999.0,  999.0,  999.0,  999.0,  999.0,  999.0,  999.0,  999.0,   -0.9,   -0.8,   -0.7,   -0.8,   -0.7,   -0.6,   -0.5,   -0.4,  999.0,  999.0,  999.0,  999.0,  999.0,  999.0,  999.0,  999.0,  999.0,  999.0,  999.0,  999.0
2001/05/27 00:10,    0.1,    0.1,    0.0,   -0.1,   -0.2,   -0.4,   -0.8,   -0.6,   -0.6,   -0.4,   -0.4,   -0.4,   -0.0,    0.0,    0.1,   -0.2,   -0.1,   -0.4,   -0.2,   -0.5,   -0.5,   -0.3,   -0.2,   -0.1,   -0.4,   -1.5,   -0.0,   -0.1,   -0.1,    0.0,   -0.0,   -0.0,  999.0,   -0.8,  999.0,   -0.7,  999.0,  999.0,  999.0,  999.0,  999.0,  999.0,  999.0,  999.0,   -0.8,   -0.7,   -0.8,   -0.8,   -0.7,   -0.5,  999.0,  999.0,  999.0,  999.0,  999.0,  999.0,  999.0,  999.0,  999.0,  999.0,  999.0,  999.0,  999.0
2001/05/27 00:20,   -0.3,   -0.1,    0.1,   -0.4,   -0.2,   -0.3,   -0.4,   -0.2,   -0.3,   -0.1,   -0.3,   -0.4,   -0.2,   -0.2,   -0.1,   -0.1,   -0.1,   -0.2,   -0.3,   -0.0,    0.0,    0.1,    0.2,    0.1,    0.1,   -0.3,   -0.1,    0.1,    0.2,    0.2,    0.2,    0.1,    0.1,  999.0,  999.0,  999.0,   -0.6,   -1.1,   -0.9,   -0.8,   -0.8,   -0.8,   -0.8,   -0.8,   -0.8,   -0.8,   -0.9,   -0.8,   -0.8,   -0.7,   -0.7,   -0.7,  999.0,  999.0,  999.0,  999.0,  999.0,  999.0,  999.0,  999.0,  999.0,  999.0,  999.0
2001/05/27 00:30,   -0.4,   -0.2,   -0.2,   -0.1,   -0.0,   -0.2,   -0.1,    0.5,   -0.1,   -0.4,   -0.1,   -0.2,   -0.1,   -0.1,   -0.1,   -0.2,   -0.2,   -0.1,   -0.2,   -0.3,   -0.3,   -0.3,   -0.3,   -0.2,   -0.1,   -0.1,    0.2,    0.1,    0.0,   -0.1,    0.3,    0.2,    0.1,  999.0,  999.0,  999.0,  999.0,   -0.9,   -0.9,   -0.9,   -0.8,   -0.7,   -0.6,   -0.6,   -0.6,   -0.6,   -0.6,   -0.6,   -0.5,   -0.6,  999.0,  999.0,  999.0,  999.0,  999.0,  999.0,  999.0,  999.0,  999.0,  999.0,  999.0,  999.0,  999.0
2001/05/27 00:40,    0.0,    0.1,   -0.1,   -0.1,   -0.1,   -0.0,   -0.0,   -0.2,   -0.1,   -0.1,    0.1,    0.1,    0.1,    0.3,   -0.0,   -0.5,   -0.4,   -0.3,   -0.2,   -0.2,   -0.1,   -0.4,   -0.3,   -0.4,   -0.3,   -0.3,    0.3,    0.2,    0.2,    0.1,   -0.2,   -0.6,   -1.1,   -0.9,   -0.8,   -0.7,   -0.9,   -0.8,   -0.9,  999.0,  999.0,  999.0,  999.0,  999.0,  999.0,  999.0,  999.0,  999.0,  999.0,  999.0,  999.0,  999.0,  999.0,  999.0,  999.0,  999.0,  999.0,  999.0,  999.0,  999.0,  999.0,  999.0,  999.0
2001/05/27 00:50,    0.2,    0.2,   -0.1,    0.3,   -0.5,   -0.1,    0.1,   -0.1,   -0.1,    0.1,    0.1,    0.2,    0.1,   -0.0,   -0.1,   -0.1,   -0.2,   -0.1,   -0.2,   -0.3,   -0.3,   -0.1,   -0.3,   -0.3,   -0.3,   -0.3,  999.0,    0.1,   -0.4,   -0.3,   -0.4,   -0.6,   -1.3,   -1.1,   -1.2,   -1.0,   -0.8,   -0.7,   -0.7,   -0.7,  999.0,  999.0,  999.0,  999.0,   -0.8,   -0.9,   -1.0,   -0.9,   -0.8,   -0.8,   -0.8,   -0.8,   -0.7,  999.0,  999.0,  999.0,  999.0,  999.0,  999.0,  999.0,  999.0,  999.0,  999.0
2001/05/27 01:00,    0.1,   -0.1,    0.1,    0.3,    0.1,    0.1,   -0.5,   -0.0,   -0.1,   -0.1,    0.2,    0.2,    0.3,    0.2,    0.2,    0.1,    0.1,    0.2,    0.2,    0.3,    0.3,    0.2,    0.1,    0.1,    0.3,    0.0,   -0.6,   -0.7,   -1.0,   -1.3,   -1.6,   -1.9,   -1.8,   -1.8,   -1.6,   -1.6,   -2.8,   -1.1,   -0.9,   -0.5,  999.0,  999.0,  999.0,  999.0,  999.0,   -0.9,   -0.9,  999.0,  999.0,  999.0,  999.0,  999.0,  999.0,  999.0,  999.0,  999.0,  999.0,  999.0,  999.0,  999.0,  999.0,  999.0,  999.0
2001/05/27 01:10,    0.1,    0.1,    0.4,    0.1,    0.1,   -0.3,   -0.0,   -0.1,   -0.1,    0.1,    0.3,    0.2,    0.1,    0.2,    0.1,    0.1,    0.1,    0.2,    0.4,    0.3,    0.4,    0.4,    0.3,    0.2,    0.1,   -0.0,   -0.2,   -0.5,   -1.4,   -1.9,   -1.8,   -1.6,   -1.6,   -1.3,   -1.3,   -1.4,   -1.0,   -0.6,   -0.3,    0.1,  999.0,  999.0,  999.0,  999.0,  999.0,  999.0,  999.0,  999.0,  999.0,  999.0,  999.0,  999.0,  999.0,  999.0,  999.0,  999.0,  999.0,  999.0,  999.0,  999.0,  999.0,  999.0,  999.0
2001/05/27 01:20,    0.1,    0.6,    0.7,    1.2,    0.1,    0.2,   -0.0,   -0.0,    0.1,    0.0,   -0.2,    0.1,    0.1,   -0.1,  999.0,   -0.0,  999.0,    0.1,    0.1,    0.1,    0.1,    0.1,    0.0,   -0.2,   -0.2,   -0.3,   -0.4,   -0.7,   -1.1,   -1.3,   -1.1,   -1.0,   -1.2,   -1.3,   -1.0,   -0.9,   -0.6,   -0.8,   -0.6,   -0.6,   -0.4,   -0.3,   -0.1,  999.0,  999.0,  999.0,  999.0,  999.0,  999.0,  999.0,  999.0,  999.0,  999.0,  999.0,  999.0,  999.0,  999.0,  999.0,  999.0,  999.0,  999.0,  999.0,  999.0
2001/05/27 01:30,    0.3,    0.6,    0.5,    0.3,    0.2,    0.3,    0.0,   -0.1,    0.2,   -0.2,   -0.2,   -0.2,   -0.1,   -0.1,   -0.1,  999.0,    0.1,    0.0,   -0.1,   -0.1,   -0.1,   -0.2,   -0.5,   -0.8,   -0.8,   -1.0,   -1.1,   -1.2,   -1.3,   -1.3,   -1.3,   -1.4,   -1.3,   -1.2,   -1.2,   -1.1,   -1.0,   -0.9,   -0.8,   -0.7,   -0.5,   -0.4,   -0.2,  999.0,  999.0,  999.0,  999.0,   -0.5,   -0.4,  999.0,  999.0,  999.0,  999.0,  999.0,  999.0,  999.0,  999.0,  999.0,  999.0,  999.0,  999.0,  999.0,  999.0
2001/05/27 01:40,   -0.1,    0.0,   -0.1,   -0.1,    0.2,    0.1,   -0.1,   -0.1,    0.1,    0.0,    0.0,    0.1,    0.0,    0.7,    0.0,    0.1,    0.1,    0.1,    0.0,   -0.0,   -0.2,   -0.5,   -0.7,   -0.4,   -0.4,   -0.8,   -0.8,   -0.9,   -1.0,   -0.9,   -0.9,   -0.8,   -0.9,   -0.9,   -0.9,   -0.7,   -0.5,  999.0,  999.0,   -0.5,  999.0,  999.0,  999.0,  999.0,  999.0,  999.0,  999.0,  999.0,  999.0,  999.0,  999.0,  999.0,  999.0,  999.0,  999.0,  999.0,  999.0,  999.0,  999.0,  999.0,  999.0,  999.0,  999.0
2001/05/27 01:50,    0.2,    0.1,    0.3,   -0.5,   -0.1,   -0.1,   -0.1,   -0.0,    1.0,   -0.1,   -0.1,  999.0,   -0.1,  999.0,    0.4,    0.6,    0.3,    0.4,   -0.0,   -0.2,   -0.6,   -0.7,   -0.5,   -0.3,   -0.3,   -0.2,   -0.5,   -0.6,   -0.9,   -1.0,   -1.0,   -1.0,   -0.9,   -0.9,   -0.8,   -0.8,   -0.5,   -0.6,   -0.5,  999.0,  999.0,  999.0,  999.0,  999.0,  999.0,  999.0,  999.0,  999.0,  999.0,  999.0,  999.0,  999.0,  999.0,  999.0,  999.0,  999.0,  999.0,  999.0,  999.0,  999.0,  999.0,  999.0,  999.0
2001/05/27 02:00,    0.1,    0.1,    0.2,    0.3,  999.0,    2.1,    0.9,    1.9,  999.0,    0.5,    0.1,   -0.1,   -0.4,   -0.4,   -0.3,   -0.7,   -0.8,   -1.4,   -1.1,   -1.2,   -0.9,   -0.8,   -0.6,   -0.3,   -0.9,   -1.2,   -1.2,   -1.1,   -1.1,   -1.0,   -0.9,   -0.8,   -0.9,   -0.9,   -0.9,   -0.7,   -0.7,   -0.5,   -0.3,  999.0,  999.0,  999.0,  999.0,  999.0,  999.0,  999.0,  999.0,  999.0,  999.0,  999.0,  999.0,  999.0,  999.0,  999.0,  999.0,  999.0,  999.0,  999.0,  999.0,  999.0,  999.0,  999.0,  999.0
2001/05/27 02:10,    0.1,   -0.0,    0.1,   -0.0,    1.0,   -0.1,   -0.5,   -0.9,    0.1,   -0.2,   -0.5,   -1.9,   -2.3,   -2.3,   -2.3,   -2.3,   -2.4,   -2.5,   -1.8,   -1.2,   -1.2,   -1.3,   -1.2,   -1.3,   -1.3,   -1.3,   -1.2,   -1.2,   -1.2,   -1.2,   -1.2,   -1.2,   -1.3,   -1.3,   -1.2,   -1.1,   -0.8,   -0.6,   -0.5,   -0.2,  999.0,  999.0,  999.0,  999.0,  999.0,  999.0,  999.0,  999.0,  999.0,  999.0,  999.0,  999.0,  999.0,  999.0,  999.0,  999.0,  999.0,  999.0,  999.0,  999.0,  999.0,  999.0,  999.0
2001/05/27 02:20,    0.2,   -0.2,   -2.4,   -3.1,   -3.6,   -3.7,   -3.5,   -3.5,   -3.6,   -3.8,   -3.5,   -3.5,   -3.4,   -3.3,   -3.4,   -3.3,   -3.1,   -3.2,   -2.7,   -1.5,   -1.2,   -1.1,   -1.2,   -1.2,   -1.2,   -1.1,   -1.1,   -1.1,   -1.2,   -1.3,   -1.4,   -1.3,   -1.4,   -1.3,   -1.3,   -1.1,   -1.0,   -0.8,   -0.5,  999.0,  999.0,  999.0,  999.0,  999.0,  999.0,  999.0,  999.0,  999.0,  999.0,  999.0,  999.0,  999.0,  999.0,  999.0,  999.0,  999.0,  999.0,  999.0,  999.0,  999.0,  999.0,  999.0,  999.0
2001/05/27 02:30,    0.1,    0.3,   -3.3,   -3.2,   -3.3,   -3.0,   -3.0,   -3.0,   -3.4,   -3.2,   -3.1,   -3.2,   -2.9,   -3.1,   -3.1,   -3.2,   -3.2,   -3.2,   -2.2,   -1.4,   -1.1,   -1.1,   -1.1,   -1.2,   -1.2,   -1.2,   -1.2,   -1.3,   -1.3,   -1.3,   -1.3,   -1.2,   -1.2,   -1.1,   -1.0,   -0.8,   -0.8,   -0.8,   -0.7,   -0.6,   -0.4,   -0.4,   -0.2,  999.0,  999.0,  999.0,  999.0,  999.0,  999.0,  999.0,  999.0,  999.0,  999.0,  999.0,  999.0,  999.0,  999.0,  999.0,  999.0,  999.0,  999.0,  999.0,  999.0
2001/05/27 02:40,    0.1,   -1.3,   -2.4,   -3.1,   -2.5,   -3.1,   -3.2,   -3.0,   -2.8,   -2.9,   -3.0,   -3.2,   -3.4,   -3.4,   -3.5,   -3.7,   -3.6,   -3.7,   -1.8,   -1.3,   -1.2,   -1.2,   -1.3,   -1.4,   -1.3,   -1.3,   -1.3,   -1.3,   -1.3,   -1.4,   -1.3,   -1.3,   -1.2,   -1.1,   -1.0,   -0.9,   -0.8,   -0.8,   -0.7,   -0.6,   -0.6,   -0.6,  999.0,  999.0,  999.0,  999.0,  999.0,  999.0,  999.0,  999.0,  999.0,   -0.7,   -0.6,   -0.5,  999.0,  999.0,  999.0,  999.0,  999.0,  999.0,  999.0,  999.0,  999.0
2001/05/27 02:50,   -2.7,   -3.8,   -3.9,   -4.0,   -4.2,   -4.3,   -4.3,   -4.3,   -3.8,   -4.1,   -4.0,   -3.9,   -4.0,   -3.9,   -3.8,   -3.9,   -4.0,   -3.7,   -1.8,   -1.3,   -1.2,   -1.3,   -1.3,   -1.3,   -1.3,   -1.4,   -1.4,   -1.3,   -1.3,   -1.2,   -1.2,   -1.2,   -1.0,   -1.0,   -0.8,   -0.8,   -0.7,   -0.7,   -0.7,   -0.7,   -0.6,   -0.5,   -0.4,   -0.6,   -0.6,   -0.7,   -0.9,   -0.8,  999.0,  999.0,  999.0,  999.0,  999.0,  999.0,  999.0,  999.0,  999.0,  999.0,  999.0,  999.0,  999.0,  999.0,  999.0
2001/05/27 03:00,   -2.6,   -4.0,   -3.5,   -4.9,   -4.5,   -4.4,   -4.4,   -4.6,   -4.6,   -4.6,   -4.5,   -4.4,   -4.3,   -4.3,   -4.2,   -4.1,   -4.1,   -4.0,   -2.2,   -1.4,   -1.2,   -1.2,   -1.2,   -1.2,   -1.2,   -1.3,   -1.2,   -1.2,   -1.2,   -1.2,   -1.2,   -1.2,   -1.1,   -1.0,   -1.0,   -1.0,   -1.0,   -0.9,   -0.9,   -0.9,   -0.8,   -0.7,   -0.7,   -0.8,   -0.8,   -0.8,   -0.9,   -0.8,   -0.8,   -0.8,   -0.7,   -0.7,   -0.6,  999.0,  999.0,  999.0,  999.0,  999.0,  999.0,  999.0,  999.0,  999.0,  999.0
2001/05/27 03:10,   -3.7,   -3.6,   -3.6,   -3.6,   -3.6,   -3.6,   -3.3,   -3.3,   -3.3,   -3.3,   -3.3,   -3.2,   -3.2,   -3.2,   -3.2,   -3.1,   -3.2,   -3.1,   -1.7,   -1.2,   -1.2,   -1.2,   -1.2,   -1.3,   -1.4,   -1.4,   -1.4,   -1.4,   -1.2,   -1.2,   -1.2,   -1.1,   -1.1,   -1.1,   -1.1,   -1.1,   -1.1,   -1.1,   -1.1,   -1.0,   -0.9,   -0.8,   -0.8,   -0.8,   -0.8,   -0.8,   -0.8,   -0.8,   -0.8,   -0.8,   -0.9,   -0.8,   -0.7,  999.0,  999.0,  999.0,  999.0,  999.0,  999.0,  999.0,  999.0,  999.0,  999.0
2001/05/27 03:20,   -3.9,   -3.6,   -3.5,   -3.6,   -3.8,   -3.7,   -3.8,   -3.4,   -3.5,   -3.4,   -3.5,   -3.5,   -3.6,   -3.6,   -3.7,   -3.7,   -3.7,   -3.1,   -2.0,   -1.6,   -1.6,   -1.6,   -1.6,   -1.5,   -1.5,   -1.4,   -1.4,   -1.4,   -1.3,   -1.2,   -1.2,   -1.2,   -1.2,   -1.2,   -1.1,   -1.0,   -1.1,   -1.1,   -1.1,   -1.1,   -1.0,   -1.0,   -0.9,   -1.0,   -0.9,   -0.9,   -1.0,   -1.0,  999.0,  999.0,  999.0,   -0.8,   -0.9,  999.0,  999.0,  999.0,  999.0,  999.0,  999.0,  999.0,  999.0,  999.0,  999.0
2001/05/27 03:30,   -3.9,   -3.9,   -3.8,   -4.1,   -4.2,   -4.2,   -4.2,   -4.1,   -4.0,   -3.9,   -4.1,   -4.1,   -4.0,   -3.9,   -4.0,   -4.0,   -4.0,   -3.8,   -2.5,   -1.6,   -1.5,   -1.3,   -1.4,   -1.3,   -1.2,   -1.3,   -1.3,   -1.1,   -1.2,   -1.2,   -1.2,   -1.2,   -1.1,   -1.1,   -1.0,   -1.0,   -1.0,   -0.9,   -0.9,   -0.9,   -0.8,   -0.7,   -0.7,   -0.7,   -0.7,   -0.6,   -0.6,   -0.6,   -0.6,   -0.7,   -0.6,   -0.6,   -0.6,   -0.6,   -0.6,   -0.6,   -0.7,   -0.6,   -0.5,   -0.5,   -0.6,  999.0,  999.0
2001/05/27 03:40,   -3.4,   -3.4,   -3.6,   -3.7,   -3.8,   -3.7,   -3.9,   -3.9,   -3.8,   -3.5,   -3.5,   -3.3,   -3.4,   -3.4,   -3.5,   -3.6,   -3.6,   -3.6,   -2.0,   -1.5,   -1.6,   -1.5,   -1.4,   -1.5,   -1.5,   -1.5,   -1.4,   -1.4,   -1.3,   -1.2,   -1.2,   -1.1,   -1.1,   -1.0,   -0.9,   -0.8,   -0.7,   -0.6,   -0.7,   -0.6,   -0.7,   -0.6,   -0.5,   -0.4,   -0.4,   -0.5,   -0.5,   -0.5,   -0.5,   -0.5,   -0.5,   -0.5,   -0.5,   -0.5,   -0.5,   -0.5,   -0.4,   -0.4,   -0.4,  999.0,  999.0,  999.0,  999.0
2001/05/27 03:50,   -3.6,   -3.6,   -3.7,   -3.7,   -3.8,   -3.9,   -4.0,   -4.2,   -4.2,   -4.1,   -4.1,   -3.9,   -3.9,   -4.0,   -3.9,   -3.9,   -4.1,   -3.8,   -2.3,   -1.7,   -1.7,   -1.7,   -1.7,   -1.5,   -1.4,   -1.3,   -1.2,   -1.2,   -1.1,   -1.1,   -1.1,   -0.9,   -0.9,   -0.8,   -0.8,   -0.8,   -0.8,   -0.8,   -0.8,   -0.8,   -0.8,   -0.8,   -0.8,   -0.7,   -0.7,   -0.7,   -0.6,   -0.6,   -0.5,   -0.5,   -0.5,   -0.5,   -0.5,   -0.5,   -0.4,   -0.4,   -0.4,   -0.4,   -0.4,   -0.4,   -0.4,   -0.5,   -0.5
2001/05/27 04:00,   -4.0,   -3.9,   -3.7,   -3.7,   -3.8,   -3.8,   -4.1,   -3.9,   -3.9,   -4.3,   -4.1,   -4.1,   -3.9,   -3.8,   -3.8,   -3.8,   -3.8,   -3.6,   -2.7,   -1.9,   -1.7,   -1.6,   -1.3,   -1.4,   -1.4,   -1.3,   -1.3,   -1.3,   -1.3,   -1.3,   -1.2,   -1.2,   -1.1,   -1.1,   -1.0,   -0.9,   -0.9,   -0.9,   -0.9,   -0.9,   -0.9,   -0.9,   -0.9,   -0.8,   -0.8,   -0.8,   -0.8,   -0.7,   -0.8,   -0.8,   -0.8,   -0.8,   -0.8,   -0.8,   -0.7,   -0.7,   -0.7,   -0.6,   -0.6,   -0.6,   -0.6,   -0.5,  999.0
2001/05/27 04:10,   -3.8,   -3.9,   -4.0,   -4.1,   -4.2,   -4.2,   -4.3,   -4.4,   -4.1,   -4.1,   -3.9,   -3.9,   -3.8,   -3.7,   -3.7,   -3.5,   -3.4,   -3.4,   -2.6,   -1.4,   -1.0,   -0.9,   -0.8,   -0.9,   -1.0,   -1.1,   -1.2,   -1.3,   -1.2,   -1.2,   -1.1,   -1.0,   -1.0,   -1.0,   -0.9,   -1.0,   -1.0,   -1.0,   -1.0,   -1.0,   -1.0,   -1.0,   -1.0,   -0.9,   -0.9,   -0.9,   -0.9,   -0.9,   -0.9,   -0.9,   -0.9,   -0.8,   -0.8,   -0.9,   -0.8,   -0.8,   -0.7,   -0.8,   -0.7,   -0.7,   -0.6,   -0.6,   -0.5
2001/05/27 04:20,   -4.5,   -4.3,   -4.2,   -4.0,   -4.0,   -4.0,   -3.9,   -3.8,   -4.0,   -4.0,   -3.7,   -3.8,   -3.8,   -3.8,   -4.0,   -4.0,   -3.8,   -3.9,   -3.0,   -1.6,   -1.2,   -1.2,   -1.1,   -1.0,   -1.0,   -1.2,   -1.5,   -1.6,   -1.6,   -1.6,   -1.5,   -1.4,   -1.2,   -1.1,   -1.1,   -1.0,   -1.0,   -1.0,   -1.1,   -1.2,   -1.1,   -1.1,   -1.1,   -1.0,   -1.0,   -1.0,   -1.0,   -1.0,   -1.0,   -1.0,   -0.9,   -0.9,   -0.8,   -0.8,   -0.8,   -0.7,   -0.7,   -0.6,   -0.6,   -0.5,   -0.5,   -0.4,   -0.5
2001/05/27 04:30,   -4.9,   -5.1,   -5.0,   -5.1,   -5.1,   -4.9,   -5.0,   -5.0,   -5.1,   -5.3,   -5.2,   -5.0,   -5.0,   -5.0,   -5.2,   -5.1,   -4.9,   -4.5,   -3.6,   -2.0,   -1.4,   -1.3,   -1.3,   -1.3,   -1.2,   -1.1,   -1.1,   -1.3,   -1.4,   -1.5,   -1.4,   -1.4,   -1.3,   -1.2,   -1.2,   -1.1,   -1.1,   -1.1,   -1.1,   -1.0,   -1.0,   -0.9,   -0.9,   -0.9,   -0.9,   -0.9,   -0.9,   -0.8,   -0.8,   -0.8,   -0.8,   -0.7,   -0.8,   -0.7,   -0.7,   -0.6,   -0.6,   -0.5,   -0.5,   -0.5,   -0.4,   -0.4,   -0.4
2001/05/27 04:40,   -5.1,   -5.2,   -5.4,   -5.4,   -5.3,   -5.3,   -5.3,   -5.2,   -5.1,   -5.3,   -5.3,   -5.3,   -5.2,   -5.1,   -5.0,   -5.0,   -4.9,   -4.6,   -3.2,   -2.4,   -2.2,   -1.9,   -1.7,   -1.6,   -1.4,   -1.2,   -1.2,   -1.1,   -1.2,   -1.3,   -1.3,   -1.3,   -1.3,   -1.2,   -1.2,   -1.1,   -1.1,   -1.1,   -1.0,   -0.9,   -0.9,   -0.9,   -0.9,   -1.0,   -1.0,   -1.0,   -0.9,   -0.9,   -0.9,   -0.9,   -0.9,   -0.8,   -0.8,   -0.7,   -0.7,   -0.7,   -0.7,   -0.7,   -0.6,   -0.5,   -0.5,   -0.4,   -0.4
2001/05/27 04:50,   -5.2,   -5.2,   -5.2,   -5.2,   -5.3,   -5.3,   -5.3,   -5.3,   -5.2,   -5.2,   -5.0,   -5.0,   -4.9,   -4.8,   -4.8,   -4.7,   -4.7,   -4.5,   -3.2,   -2.3,   -1.9,   -1.7,   -1.6,   -1.4,   -1.4,   -1.3,   -1.2,   -1.2,   -1.2,   -1.2,   -1.2,   -1.2,   -1.1,   -1.1,   -1.1,   -1.1,   -1.0,   -1.0,   -0.9,   -0.8,   -0.8,   -0.9,   -0.9,   -1.0,   -1.0,   -1.0,   -1.0,   -0.9,   -0.9,   -0.9,   -0.8,   -0.8,   -0.7,   -0.7,   -0.7,   -0.6,   -0.6,   -0.6,   -0.4,   -0.5,  999.0,  999.0,  999.0
2001/05/27 05:00,   -4.2,   -4.2,   -4.2,   -4.2,   -4.2,   -4.4,   -4.4,   -4.4,   -4.4,   -4.5,   -4.5,   -4.5,   -4.6,   -4.6,   -4.6,   -4.5,   -4.5,   -4.4,   -3.3,   -2.1,   -1.6,   -1.4,   -1.4,   -1.4,   -1.4,   -1.4,   -1.4,   -1.4,   -1.2,   -1.2,   -1.2,   -1.2,   -1.1,   -1.1,   -1.1,   -1.0,   -0.9,   -0.9,   -0.8,   -0.9,   -0.9,   -0.9,   -0.9,   -1.0,   -1.0,   -1.0,   -1.0,   -0.9,   -0.9,   -0.8,   -0.8,   -0.8,   -0.8,   -0.7,   -0.7,   -0.6,   -0.7,   -0.6,   -0.6,   -0.6,   -0.6,  999.0,  999.0
2001/05/27 05:10,   -4.6,   -4.6,   -4.7,   -4.7,   -4.9,   -4.8,   -4.9,   -4.9,   -5.1,   -5.1,   -5.1,   -5.2,   -5.3,   -5.3,   -5.4,   -5.4,   -5.3,   -4.9,   -3.1,   -2.2,   -2.0,   -1.9,   -1.9,   -1.7,   -1.7,   -1.5,   -1.5,   -1.5,   -1.5,   -1.5,   -1.5,   -1.5,   -1.6,   -1.5,   -1.4,   -1.4,   -1.4,   -1.3,   -1.3,   -1.2,   -1.2,   -1.3,   -1.4,   -1.4,   -1.4,   -1.4,   -1.4,   -1.3,   -1.2,   -1.3,   -1.2,   -1.2,   -1.1,   -1.1,   -1.0,   -1.0,   -0.9,   -0.9,   -0.8,   -0.8,  999.0,  999.0,  999.0
2001/05/27 05:20,   -4.9,   -4.8,   -4.8,   -4.9,   -5.0,   -5.1,   -5.2,   -5.3,   -5.4,   -5.4,   -5.4,   -5.4,   -5.3,   -5.2,   -5.2,   -5.1,   -5.0,   -4.4,   -2.8,   -2.2,   -2.0,   -1.8,   -1.8,   -1.8,   -1.7,   -1.6,   -1.6,   -1.6,   -1.7,   -1.6,   -1.6,   -1.5,   -1.4,   -1.4,   -1.3,   -1.3,   -1.3,   -1.2,   -1.1,   -1.1,   -1.1,   -1.2,   -1.3,   -1.3,   -1.3,   -1.3,   -1.3,   -1.3,   -1.2,   -1.3,   -1.2,   -1.2,   -1.1,   -1.1,   -1.0,   -0.8,   -0.8,   -0.8,   -0.8,  999.0,  999.0,  999.0,  999.0
2001/05/27 05:30,   -4.3,   -4.5,   -4.6,   -4.6,   -4.6,   -4.6,   -4.7,   -4.8,   -4.9,   -5.0,   -4.9,   -5.1,   -5.1,   -5.1,   -5.0,   -5.0,   -5.0,   -3.7,   -2.5,   -2.0,   -1.9,   -1.7,   -1.6,  999.0,   -1.5,   -1.4,   -1.4,   -1.4,   -1.4,   -1.4,   -1.4,   -1.4,   -1.4,   -1.4,   -1.4,   -1.3,   -1.2,   -1.2,   -1.1,   -1.0,   -1.0,   -1.1,   -1.2,   -1.1,   -1.1,   -1.2,   -1.1,   -1.0,   -1.0,   -0.9,   -0.9,   -0.9,   -0.9,   -0.8,   -0.7,   -0.6,   -0.6,   -0.6,   -0.5,  999.0,  999.0,  999.0,  999.0
2001/05/27 05:40,   -4.6,   -4.5,   -4.5,   -4.5,   -4.6,   -4.6,   -4.5,   -4.5,   -4.6,   -4.5,   -4.6,   -4.6,   -4.6,   -4.7,   -4.7,   -4.7,   -4.7,   -3.5,   -2.2,   -1.7,   -1.6,   -1.4,   -1.4,   -1.4,   -1.4,   -1.3,   -1.2,   -1.2,   -1.2,   -1.3,   -1.5,   -1.4,   -1.4,   -1.3,   -1.3,   -1.1,   -1.1,   -1.0,   -0.9,   -0.6,   -2.0,  999.0,  999.0,  999.0,  999.0,  999.0,  999.0,  999.0,  999.0,  999.0,  999.0,  999.0,  999.0,  999.0,  999.0,  999.0,  999.0,  999.0,   -0.7,   -0.7,  999.0,  999.0,  999.0
2001/05/27 05:50,   -3.9,   -4.0,   -4.0,   -4.0,   -4.1,   -4.0,   -4.1,   -4.0,   -4.1,   -4.2,   -4.3,   -4.3,   -4.3,   -4.3,   -4.2,   -4.2,   -4.2,   -3.7,   -2.3,   -1.6,   -1.5,   -1.4,   -1.4,   -1.3,   -1.3,   -1.4,   -1.4,   -1.5,   -1.5,   -1.4,   -1.3,   -1.3,   -1.2,   -1.2,   -1.1,   -1.0,   -0.9,   -0.9,  999.0,   -1.0,  999.0,  999.0,  999.0,  999.0,  999.0,  999.0,  999.0,  999.0,  999.0,  999.0,  999.0,  999.0,  999.0,  999.0,  999.0,  999.0,  999.0,  999.0,  999.0,  999.0,   -0.9,  999.0,  999.0
2001/05/27 06:00,   -3.5,   -3.7,   -3.7,   -3.8,   -3.8,   -3.9,   -3.9,   -4.0,   -4.0,   -4.0,   -3.9,   -4.1,   -4.1,   -4.1,   -4.2,   -4.2,   -4.1,   -3.6,   -2.2,   -1.7,   -1.5,   -1.4,   -1.3,   -1.4,   -1.3,   -1.3,   -1.3,   -1.3,   -1.2,   -1.3,   -1.3,   -1.3,   -1.2,   -1.2,   -1.3,   -1.1,   -1.2,   -1.3,   -1.1,   -1.1,   -1.2,   -1.2,   -1.3,   -1.2,   -1.2,   -1.4,   -1.3,   -1.3,   -1.3,   -1.3,   -1.2,   -1.3,   -1.3,   -1.3,   -1.3,   -1.3,   -1.3,   -1.2,   -1.1,  999.0,  999.0,  999.0,  999.0
2001/05/27 06:10,   -3.6,   -3.7,   -3.6,   -3.7,   -3.7,   -3.8,   -4.0,   -4.2,   -4.2,   -4.4,   -4.3,   -4.4,   -4.3,   -4.4,   -4.4,   -4.3,   -4.2,   -3.6,   -2.1,   -1.5,   -1.4,   -1.4,   -1.3,   -1.3,   -1.3,   -1.4,   -1.4,   -1.4,   -1.5,   -1.4,   -1.4,   -1.5,   -1.5,   -1.4,   -1.4,   -1.4,   -1.4,   -1.4,   -1.3,   -1.4,   -1.4,   -1.4,   -1.4,   -1.4,   -1.4,   -1.3,   -1.4,   -1.4,   -1.4,   -1.6,   -1.3,   -1.3,   -1.5,   -1.3,  999.0,  999.0,  999.0,  999.0,  999.0,  999.0,  999.0,  999.0,  999.0
2001/05/27 06:20,   -3.1,   -3.3,   -3.3,   -3.3,   -3.4,   -3.4,   -3.4,   -3.3,   -3.3,   -3.3,   -3.2,   -3.2,   -3.2,   -3.3,   -3.0,   -3.1,   -3.1,   -3.0,   -1.7,   -1.4,   -1.3,   -1.3,   -1.2,   -1.2,   -1.2,   -1.3,   -1.3,   -1.3,   -1.3,   -1.4,   -1.6,   -1.4,   -1.4,   -1.3,   -1.3,   -1.2,   -1.2,   -1.2,   -1.2,   -1.1,   -1.2,   -1.1,   -1.2,   -1.1,  999.0,  999.0,  999.0,  999.0,  999.0,  999.0,  999.0,  999.0,  999.0,  999.0,  999.0,  999.0,  999.0,  999.0,  999.0,  999.0,  999.0,  999.0,  999.0
2001/05/27 06:30,   -2.5,   -1.8,   -1.2,   -2.3,   -2.4,   -2.4,   -2.3,   -2.2,   -2.3,   -2.4,   -2.5,   -2.5,   -2.6,   -2.7,   -2.7,   -2.9,   -3.0,   -3.0,   -2.1,   -1.7,   -1.7,   -1.6,   -1.5,   -1.4,   -1.4,   -1.3,   -1.3,   -1.4,   -1.5,   -1.5,   -1.4,   -1.3,   -1.4,   -1.3,   -1.3,   -1.2,   -1.3,   -1.4,   -1.4,   -1.4,   -1.4,   -1.4,   -1.4,   -1.4,   -1.2,   -1.3,   -1.2,   -1.2,   -1.1,   -1.1,   -1.1,   -1.0,   -0.9,   -0.9,   -0.9,   -0.8,  999.0,  999.0,  999.0,  999.0,  999.0,  999.0,  999.0
2001/05/27 06:40,   -2.4,   -2.2,   -1.9,   -2.9,   -2.9,   -2.9,   -3.1,   -3.2,   -3.3,   -3.5,   -3.5,   -3.7,   -3.5,   -3.8,   -3.8,   -3.7,   -3.7,   -3.5,   -2.3,   -1.7,   -1.5,   -1.3,   -1.1,   -1.1,   -1.2,   -1.3,   -1.3,   -1.5,   -1.5,   -1.5,   -1.6,   -1.5,   -1.5,   -1.5,   -1.4,   -1.4,   -1.3,   -1.2,   -1.3,   -1.2,   -1.3,   -1.3,   -1.3,   -1.2,   -1.2,   -1.2,   -1.1,   -1.1,   -1.0,   -1.0,   -0.9,   -1.0,   -0.9,   -0.9,   -0.8,   -0.7,  999.0,  999.0,  999.0,  999.0,  999.0,  999.0,  999.0
2001/05/27 06:50,   -4.2,   -4.2,   -4.1,   -4.0,   -4.0,   -4.0,   -4.1,   -4.0,   -3.9,   -3.9,   -3.9,   -3.7,   -3.7,   -3.5,   -3.4,   -3.5,   -3.8,   -3.5,   -2.1,   -1.4,   -1.3,   -1.2,   -1.1,   -1.2,   -1.3,   -1.3,   -1.4,   -1.3,   -1.3,   -1.3,   -1.3,   -1.3,   -1.2,   -1.2,   -1.2,   -1.1,   -1.1,   -1.0,   -1.0,   -0.9,   -0.9,   -0.9,   -0.9,   -1.0,   -0.9,   -0.9,   -0.9,   -0.9,   -0.9,   -0.9,   -0.8,   -0.9,   -0.9,   -0.8,   -0.8,   -0.6,  999.0,  999.0,  999.0,  999.0,  999.0,  999.0,  999.0
2001/05/27 07:00,   -3.9,   -4.0,   -4.1,   -4.3,   -4.3,   -4.4,   -4.4,   -4.3,   -4.4,   -4.5,   -4.2,   -4.3,   -4.3,   -4.3,   -4.2,   -4.2,   -4.2,   -3.5,   -1.7,   -1.2,   -1.2,   -1.1,   -1.1,   -1.1,   -1.1,   -1.1,   -1.1,   -1.2,   -1.2,   -1.2,   -1.2,   -1.2,   -1.1,   -1.1,   -1.1,   -1.1,   -1.0,   -1.0,   -1.0,   -1.0,   -1.0,   -1.0,   -1.0,   -1.0,   -1.0,   -1.1,   -1.1,   -1.0,   -1.0,   -0.9,   -0.8,   -0.8,   -0.8,   -0.8,   -0.8,   -0.7,   -0.7,   -0.7,  999.0,  999.0,  999.0,  999.0,  999.0
2001/05/27 07:10,   -4.5,   -4.4,   -4.4,   -4.4,   -4.4,   -4.2,   -3.9,   -3.9,   -3.8,   -3.7,   -3.7,   -3.5,   -3.5,   -3.4,   -3.3,   -3.3,   -3.4,   -2.5,   -1.4,   -1.1,   -1.0,   -1.0,   -1.0,   -1.0,   -0.9,   -1.0,   -1.2,   -1.2,   -1.1,   -1.1,   -1.1,   -1.0,   -1.0,   -1.1,   -1.1,   -1.1,   -1.1,   -1.0,   -1.0,   -1.0,   -1.0,   -1.0,   -1.0,   -1.0,   -1.0,   -1.0,   -0.9,   -1.0,   -0.9,   -0.9,   -0.8,   -0.9,   -0.7,   -0.7,   -0.8,   -0.7,   -0.7,   -0.6,   -0.6,  999.0,  999.0,  999.0,  999.0
2001/05/27 07:20,   -5.1,   -6.0,   -5.7,   -5.5,   -5.7,   -5.5,   -5.6,   -5.4,   -5.2,   -5.1,   -4.9,   -4.9,   -4.9,   -4.8,   -4.7,   -4.7,   -4.7,   -2.6,   -1.6,   -1.3,   -1.3,   -1.1,   -1.1,   -1.0,   -1.1,   -1.1,   -1.1,   -1.1,   -1.1,   -1.1,   -1.0,   -1.0,   -0.9,   -0.9,   -0.9,   -0.9,   -0.9,   -0.9,   -0.9,   -0.8,   -0.9,   -0.8,   -0.8,   -0.8,   -0.8,   -0.8,   -0.8,   -0.8,   -0.7,   -0.7,   -0.7,   -0.7,   -0.6,   -0.7,   -0.7,   -0.7,  999.0,  999.0,  999.0,  999.0,  999.0,  999.0,  999.0
2001/05/27 07:30,   -6.5,   -6.5,   -6.5,   -6.6,   -6.7,   -6.6,   -6.5,   -6.6,   -6.4,   -6.3,   -6.2,   -6.0,   -5.9,   -5.8,   -5.6,   -5.6,   -5.2,   -2.4,   -1.4,   -1.2,   -1.1,   -1.1,   -1.1,   -1.1,  999.0,   -1.2,   -1.1,   -1.1,   -1.1,   -1.1,   -1.1,   -1.1,   -1.0,   -1.0,   -1.0,   -1.0,   -1.0,   -1.0,   -1.0,   -1.0,   -0.9,   -0.9,   -1.0,   -1.0,   -1.0,   -0.9,   -0.9,   -0.8,   -0.9,   -0.8,   -0.9,   -0.7,   -0.7,   -0.8,   -0.7,   -0.5,  999.0,  999.0,  999.0,  999.0,  999.0,  999.0,  999.0
2001/05/27 07:40,   -6.2,   -6.3,   -6.4,   -6.5,   -6.6,   -6.6,   -6.6,   -6.6,   -6.4,   -6.2,   -6.0,   -5.8,   -5.7,   -5.6,   -5.7,   -5.7,   -4.8,   -2.1,   -1.4,   -1.3,   -1.2,   -1.2,   -1.2,   -1.2,   -1.1,   -1.2,   -1.2,   -1.1,   -1.2,   -1.2,   -1.2,   -1.2,   -1.2,   -1.1,   -1.1,   -1.0,   -1.1,   -1.0,   -0.9,   -1.0,   -1.0,   -1.1,   -1.0,   -1.1,   -1.1,   -1.1,   -1.1,   -1.1,   -1.1,   -1.0,   -1.0,   -1.0,   -0.9,   -0.9,   -0.7,   -0.7,   -0.5,   -0.5,  999.0,  999.0,  999.0,  999.0,  999.0
2001/05/27 07:50,   -6.1,   -6.0,   -6.1,   -5.9,   -5.9,   -5.8,   -5.8,   -5.9,   -5.8,   -5.7,   -5.7,   -5.6,   -5.5,   -5.4,   -5.5,   -5.6,   -3.9,   -1.8,   -1.3,   -1.3,   -1.2,   -1.3,   -1.3,   -1.4,   -1.4,   -1.4,   -1.4,   -1.4,   -1.4,   -1.5,   -1.4,   -1.4,   -1.4,   -1.3,   -1.3,   -1.3,   -1.2,   -1.1,   -0.9,   -0.9,   -0.8,   -0.9,   -0.9,   -1.0,   -1.0,   -1.0,  999.0,   -1.0,   -1.0,   -0.9,   -0.9,   -0.9,   -0.9,   -0.8,   -0.7,  999.0,   -0.5,  999.0,  999.0,  999.0,  999.0,  999.0,  999.0
2001/05/27 08:00,   -5.0,   -4.9,   -4.8,   -4.8,   -5.1,   -4.9,   -5.0,   -4.8,   -4.8,   -4.9,   -4.9,   -4.9,   -4.9,   -5.0,   -4.9,   -4.9,   -3.8,   -2.0,   -1.5,   -1.5,   -1.5,   -1.6,   -1.6,   -1.6,   -1.7,   -1.7,   -1.7,   -1.7,   -1.6,   -1.5,   -1.4,   -1.3,   -1.3,   -1.3,   -1.2,   -1.1,   -1.2,   -1.1,   -1.1,   -1.0,   -0.9,   -1.0,   -0.7,   -1.0,   -0.8,   -0.9,   -0.9,   -1.0,   -0.9,   -1.0,   -1.1,   -1.1,   -1.2,   -1.0,   -1.0,   -0.8,   -0.7,   -0.6,  999.0,  999.0,  999.0,  999.0,  999.0
2001/05/27 08:10,   -5.5,   -5.5,   -5.4,   -5.3,   -5.3,   -5.3,   -5.3,   -5.4,   -5.4,   -5.6,   -5.7,   -5.8,   -5.8,   -5.8,   -5.9,   -5.9,   -4.3,   -2.5,   -1.9,   -1.7,   -1.7,   -1.6,   -1.5,   -1.5,   -1.4,   -1.4,   -1.3,   -1.3,   -1.2,   -1.1,   -1.1,   -1.2,   -1.2,   -1.2,   -1.1,   -1.1,   -1.0,   -0.9,   -0.8,   -0.9,   -1.0,   -1.0,   -0.9,   -0.9,   -0.8,  999.0,  999.0,  999.0,  999.0,   -0.9,  999.0,  999.0,  999.0,  999.0,  999.0,  999.0,  999.0,  999.0,  999.0,  999.0,  999.0,  999.0,  999.0
2001/05/27 08:20,   -6.1,   -6.0,   -5.9,   -5.8,   -5.9,   -5.9,   -5.9,   -5.8,   -5.9,   -5.9,   -5.7,   -5.7,   -5.6,   -5.5,   -5.5,   -5.5,   -4.5,   -2.0,   -1.4,   -1.2,   -1.2,   -1.2,   -1.2,   -1.2,   -1.2,   -1.2,   -1.1,   -1.1,   -1.1,   -1.2,   -1.2,   -1.2,   -1.3,   -1.3,   -1.3,   -1.3,   -1.1,   -1.1,   -1.0,   -1.1,   -1.1,   -1.1,   -1.1,   -1.0,   -1.0,   -1.0,   -1.2,   -1.1,   -1.1,   -1.1,   -1.1,   -1.2,   -1.1,   -0.8,  999.0,  999.0,  999.0,  999.0,  999.0,  999.0,  999.0,  999.0,  999.0
2001/05/27 08:30,   -4.9,   -4.8,   -4.8,   -4.7,   -4.6,   -4.6,   -4.6,   -4.4,   -4.4,   -4.5,   -4.4,   -4.4,   -4.5,   -4.5,   -4.6,   -4.7,   -4.6,   -2.0,   -1.2,   -1.1,   -1.1,   -1.1,   -1.1,   -1.2,   -1.3,   -1.4,   -1.4,   -1.5,   -1.6,   -1.6,   -1.5,   -1.5,   -1.5,   -1.4,   -1.3,   -1.3,   -1.2,   -1.2,   -1.1,   -1.1,   -1.1,   -1.2,   -1.2,   -1.2,   -1.1,   -1.0,   -1.0,   -1.0,   -1.1,   -1.1,   -1.0,   -1.0,   -0.9,   -0.9,   -1.0,  999.0,  999.0,  999.0,  999.0,  999.0,  999.0,  999.0,  999.0
2001/05/27 08:40,   -2.2,   -2.2,   -2.1,   -2.6,   -2.2,   -2.1,   -2.9,   -3.0,   -2.9,   -3.4,   -2.7,   -2.7,   -2.7,   -2.7,   -2.3,   -2.3,   -2.3,   -1.5,   -0.9,   -1.2,   -1.2,   -1.5,   -1.5,   -1.7,   -1.6,   -1.6,   -1.5,   -1.5,   -1.5,   -1.4,   -1.4,   -1.4,   -1.3,   -1.3,   -1.2,   -1.1,   -1.1,   -1.1,   -1.1,   -1.1,   -1.1,   -1.2,   -1.2,   -1.2,   -1.1,   -1.2,   -1.1,   -0.9,   -1.2,  999.0,  999.0,  999.0,  999.0,  999.0,  999.0,  999.0,  999.0,  999.0,  999.0,  999.0,  999.0,  999.0,  999.0
2001/05/27 08:50,  999.0,   -4.0,   -3.9,   -3.6,   -3.6,   -3.7,   -3.7,   -3.8,   -3.8,   -4.0,   -4.1,   -4.1,   -4.1,   -4.0,   -4.1,   -4.1,   -3.8,   -2.5,   -1.8,   -1.7,   -1.7,   -1.6,   -1.5,   -1.5,   -1.5,   -1.5,   -1.5,   -1.4,   -1.4,   -1.4,   -1.3,   -1.3,   -1.3,   -1.2,   -1.2,   -1.3,   -1.3,   -1.2,   -1.2,   -1.2,   -1.3,   -1.3,   -1.2,   -1.2,   -1.2,   -1.2,   -1.2,   -1.4,   -1.2,   -1.2,   -1.1,  999.0,   -1.0,  999.0,   -0.7,  999.0,  999.0,  999.0,  999.0,  999.0,  999.0,  999.0,  999.0
2001/05/27 09:00,   -3.9,   -4.0,   -4.1,   -3.9,   -4.0,   -4.0,   -3.9,   -3.9,   -4.0,   -3.9,   -4.0,   -4.0,   -3.9,   -3.8,   -3.8,   -3.7,   -3.8,   -2.8,   -1.7,   -1.4,   -1.3,   -1.3,   -1.3,   -1.4,   -1.4,   -1.4,   -1.4,   -1.4,   -1.3,   -1.3,   -1.4,   -1.3,   -1.3,   -1.3,   -1.2,   -1.2,   -1.1,   -1.1,   -1.1,   -1.1,   -1.1,   -1.0,   -1.0,   -1.1,   -1.1,   -1.0,   -1.0,   -1.0,   -1.0,   -1.0,   -0.9,   -1.0,   -1.0,   -0.9,  999.0,  999.0,  999.0,  999.0,  999.0,  999.0,  999.0,  999.0,  999.0
2001/05/27 09:10,   -3.5,   -3.0,   -3.0,   -3.0,   -3.0,   -2.9,   -3.0,   -3.1,   -3.0,   -3.3,   -3.4,   -3.4,   -3.4,   -3.5,   -3.5,   -3.5,   -3.5,   -3.1,   -1.8,   -1.4,   -1.4,   -1.4,   -1.3,   -1.3,   -1.3,   -1.3,   -1.3,   -1.3,   -1.2,   -1.2,   -1.1,   -1.0,   -1.0,   -1.0,   -1.0,   -1.0,   -0.9,   -0.9,   -0.9,   -0.8,   -0.8,   -0.9,   -1.1,   -1.1,   -1.1,   -1.0,   -1.1,   -1.0,   -1.0,   -1.1,   -1.0,   -1.0,   -1.0,   -0.9,   -0.9,   -0.8,   -0.7,  999.0,  999.0,  999.0,  999.0,  999.0,  999.0
2001/05/27 09:20,  999.0,   -3.2,   -3.4,   -3.4,   -3.5,   -3.6,   -3.8,   -3.6,   -3.5,   -3.4,   -3.2,   -3.4,   -3.4,   -3.5,   -3.5,   -3.5,   -3.6,   -3.5,   -2.1,   -1.6,   -1.4,   -1.3,   -1.3,   -1.2,   -1.3,   -1.3,   -1.3,   -1.3,   -1.2,   -1.2,   -1.2,   -1.2,   -1.1,   -1.1,   -0.9,   -0.9,   -0.9,   -0.9,   -0.9,   -0.9,   -0.9,   -0.9,   -0.9,   -1.0,   -1.0,   -1.0,   -0.9,   -0.9,   -0.9,   -0.8,   -0.7,   -0.7,   -0.7,   -0.7,   -0.6,   -0.6,   -0.5,  999.0,  999.0,  999.0,  999.0,  999.0,  999.0
2001/05/27 09:30,   -1.7,   -1.8,   -2.3,   -3.0,   -3.2,   -3.3,   -3.4,   -3.4,   -3.4,   -3.3,   -3.6,   -3.6,   -3.5,   -3.6,   -3.5,   -3.4,   -3.2,   -3.1,   -2.2,   -1.4,   -1.2,   -1.2,   -1.2,   -1.0,   -1.0,   -1.0,   -0.9,   -1.0,   -1.0,   -0.9,   -0.9,   -0.9,   -0.8,   -0.9,   -0.8,   -0.8,   -0.8,   -0.8,   -0.8,   -1.0,   -0.9,  999.0,  999.0,  999.0,   -0.9,   -0.9,   -0.9,   -0.9,   -0.9,   -0.9,   -0.9,   -0.8,   -0.8,   -0.8,   -0.6,   -0.6,   -0.5,   -0.6,   -0.6,  999.0,  999.0,  999.0,  999.0
2001/05/27 09:40,    0.2,    0.4,    0.1,    0.1,  999.0,   -2.3,   -2.3,   -2.2,   -2.1,   -2.1,   -2.4,   -2.5,   -3.3,   -3.5,   -3.5,   -3.8,   -3.9,   -4.1,   -2.4,   -1.4,   -1.2,   -1.2,   -1.2,   -1.3,   -1.3,   -1.2,   -1.2,   -1.1,   -1.1,   -1.2,   -1.1,   -1.3,   -1.1,   -1.1,   -1.1,   -1.2,   -1.2,   -1.2,   -1.2,   -1.1,   -1.0,   -1.0,   -1.0,   -1.0,   -1.0,   -1.0,   -1.0,   -1.0,   -0.9,   -0.9,   -0.9,   -0.8,   -0.8,   -0.6,   -0.6,   -0.6,   -0.5,   -0.1,  999.0,  999.0,  999.0,  999.0,  999.0
2001/05/27 09:50,    0.2,    0.5,   -1.5,   -1.6,   -3.2,   -3.3,   -3.2,   -3.3,   -3.7,   -3.2,   -3.7,   -3.5,   -3.9,   -3.6,   -3.8,   -3.8,   -3.7,   -3.8,   -2.2,   -1.2,   -1.0,   -1.0,   -0.9,   -0.8,   -0.8,   -0.7,   -0.9,   -1.1,   -1.1,   -0.9,   -1.1,   -1.0,   -0.9,   -1.0,   -1.0,   -1.0,   -1.0,   -1.0,   -0.9,   -0.9,   -0.9,   -0.8,   -0.8,   -0.9,   -1.0,   -0.9,   -1.0,   -1.0,   -1.0,   -1.0,   -1.0,   -1.0,   -0.9,   -0.8,   -0.9,   -0.8,   -0.7,   -0.4,  999.0,  999.0,  999.0,  999.0,  999.0
2001/05/27 10:00,    0.2,    0.6,   -3.3,   -3.7,   -4.0,   -3.9,   -3.7,   -3.9,   -3.8,   -3.7,   -3.9,   -4.0,   -4.0,   -3.9,   -3.8,   -3.7,   -3.5,   -3.4,   -2.2,   -1.4,   -1.5,   -1.5,   -1.5,   -1.4,   -1.4,   -1.4,   -1.4,   -1.2,   -1.1,   -1.0,   -1.0,   -1.0,   -0.9,   -0.9,   -0.9,   -0.8,   -0.9,   -0.8,   -0.8,   -0.8,  999.0,  999.0,   -0.9,   -0.9,   -0.9,   -0.9,   -0.9,   -0.8,   -0.8,   -0.9,  999.0,  999.0,  999.0,  999.0,   -0.5,   -0.4,  999.0,   -0.2,  999.0,  999.0,  999.0,  999.0,  999.0
2001/05/27 10:10,    0.3,    0.2,   -3.2,   -3.2,   -3.2,   -3.3,   -3.3,   -3.3,   -3.4,   -3.3,   -3.3,   -3.1,   -3.0,   -3.0,   -3.0,   -3.0,   -3.0,   -2.9,   -2.4,   -1.6,   -1.5,   -1.3,   -1.2,   -1.1,   -1.0,   -0.8,   -0.8,   -0.9,   -1.1,   -1.0,   -0.9,   -0.8,   -0.8,  999.0,  999.0,  999.0,  999.0,  999.0,   -0.9,   -0.8,   -0.8,   -0.7,   -0.7,   -0.8,   -0.7,   -0.8,   -0.8,   -0.8,   -0.7,   -0.7,  999.0,  999.0,  999.0,  999.0,  999.0,  999.0,  999.0,  999.0,  999.0,  999.0,  999.0,  999.0,  999.0
2001/05/27 10:20,    0.1,    0.5,   -1.3,   -2.8,   -2.8,   -2.9,   -3.0,   -3.0,   -3.1,   -2.9,   -3.2,   -3.2,   -3.2,   -3.2,   -3.1,   -3.1,   -3.1,   -3.2,   -2.5,   -1.5,   -1.2,   -1.1,   -0.9,   -0.8,   -0.9,   -0.8,   -0.9,   -1.1,   -1.2,   -1.0,   -1.0,   -0.9,   -0.9,   -0.8,   -0.7,   -0.8,   -0.8,   -0.8,   -0.7,   -0.7,   -0.8,   -0.8,   -0.8,   -0.8,   -0.8,   -0.9,   -1.0,  999.0,  999.0,  999.0,   -0.9,  999.0,  999.0,  999.0,  999.0,  999.0,  999.0,  999.0,  999.0,  999.0,  999.0,  999.0,  999.0
2001/05/27 10:30,   -3.3,   -3.6,   -3.8,   -4.0,   -4.0,   -4.1,   -4.2,   -4.2,   -4.2,   -4.2,   -4.1,   -4.0,   -3.8,   -3.8,   -3.7,   -3.7,   -3.7,   -3.7,   -2.6,   -1.8,   -1.6,   -1.5,   -1.4,   -1.4,   -1.1,   -1.3,   -1.2,   -1.2,   -1.2,   -1.1,   -1.1,   -1.0,   -1.1,   -0.9,   -0.8,   -0.7,   -0.8,   -0.8,   -0.9,   -0.9,   -0.8,   -0.7,   -0.8,   -0.8,   -0.6,  999.0,  999.0,  999.0,  999.0,   -0.9,  999.0,  999.0,  999.0,  999.0,  999.0,  999.0,  999.0,  999.0,  999.0,  999.0,  999.0,  999.0,  999.0
2001/05/27 10:40,   -3.9,   -3.7,   -3.9,   -3.9,   -3.9,   -4.0,   -4.0,   -4.0,   -3.9,   -3.8,   -3.5,   -3.7,   -3.4,   -3.5,   -3.4,   -3.3,   -3.3,   -3.1,   -2.2,   -1.8,   -1.7,   -1.5,   -1.4,   -1.2,   -1.0,   -0.9,   -1.1,   -1.2,   -1.1,   -1.1,   -1.1,   -1.1,   -0.9,   -0.7,   -1.1,   -0.9,   -0.9,   -1.0,   -0.8,   -0.9,   -0.8,   -0.8,   -1.0,   -1.1,   -1.1,   -1.1,   -1.0,   -1.1,   -0.9,  999.0,  999.0,  999.0,  999.0,  999.0,  999.0,  999.0,  999.0,  999.0,  999.0,  999.0,  999.0,  999.0,  999.0
2001/05/27 10:50,   -4.2,   -3.5,   -3.5,   -3.3,   -3.5,   -3.7,   -3.7,   -3.7,   -3.7,   -3.7,   -3.5,   -3.6,   -3.5,   -3.6,   -3.4,   -3.4,   -3.4,   -3.3,   -2.0,   -1.4,   -1.3,   -1.2,   -1.1,   -1.0,   -1.0,   -1.3,   -1.4,   -1.4,   -1.4,   -1.4,   -1.2,   -1.1,   -1.1,   -1.0,   -1.2,   -1.1,   -1.1,   -1.1,   -1.1,   -1.0,   -1.1,   -1.1,   -1.1,   -1.0,   -1.0,   -1.0,   -1.1,   -1.0,   -1.0,   -1.0,  999.0,  999.0,  999.0,  999.0,  999.0,  999.0,  999.0,  999.0,  999.0,  999.0,  999.0,  999.0,  999.0
2001/05/27 11:00,   -4.8,   -4.7,   -4.7,   -4.7,   -4.6,   -4.5,   -4.5,   -4.4,   -4.2,   -3.9,   -3.8,   -3.8,   -3.8,   -3.8,   -3.7,   -3.6,   -3.5,   -3.6,   -2.6,   -1.8,   -1.7,   -1.6,   -1.5,   -1.4,   -1.3,   -1.4,   -1.4,   -1.4,   -1.4,   -1.2,   -1.2,   -1.1,   -1.1,   -1.1,   -1.1,   -1.0,   -1.0,   -1.0,   -1.0,   -0.9,   -1.0,   -1.0,   -1.1,   -1.1,   -1.1,   -1.0,   -0.9,   -1.0,   -0.9,   -1.0,   -0.9,   -0.8,  999.0,   -0.9,   -0.8,  999.0,  999.0,   -0.7,  999.0,  999.0,  999.0,  999.0,  999.0
2001/05/27 11:10,   -3.6,   -3.7,   -3.8,   -4.0,   -3.9,   -4.0,   -3.9,   -4.1,   -4.0,   -4.1,   -4.1,   -3.9,   -4.1,   -4.0,   -4.2,   -4.3,   -4.4,   -4.4,   -3.1,   -1.8,   -1.4,   -1.4,   -1.4,   -1.4,   -1.4,   -1.3,   -1.4,   -1.4,   -1.4,   -1.2,   -1.2,   -1.2,   -1.1,   -1.1,   -1.1,   -1.2,   -1.2,   -1.1,   -1.2,   -1.2,   -1.2,   -1.2,   -1.1,   -1.1,   -1.1,   -1.2,   -1.2,   -1.1,   -1.0,   -1.1,   -1.0,   -1.0,   -1.1,   -0.9,  999.0,  999.0,  999.0,  999.0,   -0.8,  999.0,  999.0,  999.0,  999.0
2001/05/27 11:20,   -3.2,   -3.8,   -3.5,   -3.6,   -3.6,   -3.6,   -3.6,   -3.7,   -3.6,   -3.8,   -3.6,   -3.5,   -3.4,   -3.3,   -3.3,   -3.4,   -3.5,   -3.4,   -2.4,   -1.5,   -1.4,   -1.8,   -1.5,   -1.6,   -1.5,   -1.6,   -1.6,   -1.6,   -1.5,   -1.4,   -1.4,   -1.4,   -1.4,   -1.3,   -1.3,   -1.3,   -1.3,   -1.3,   -1.3,   -1.3,   -1.3,   -1.3,   -1.4,   -1.3,   -1.3,   -1.3,   -1.2,   -1.3,   -1.3,   -1.2,   -1.2,   -1.2,   -1.2,   -1.0,   -1.1,   -1.0,   -1.0,   -1.0,  999.0,  999.0,  999.0,  999.0,  999.0
2001/05/27 11:30,   -0.2,   -1.3,   -3.4,   -3.3,   -3.3,   -3.1,   -3.0,   -3.0,   -2.9,   -2.9,   -2.9,   -3.0,   -3.2,   -3.3,   -3.3,   -3.4,   -3.4,   -3.1,   -2.1,   -1.8,   -1.9,   -1.9,   -1.9,   -1.9,   -1.9,   -1.9,   -1.9,   -1.9,   -1.8,   -1.7,   -1.5,   -1.5,   -1.4,   -1.3,   -1.2,   -1.2,   -1.2,   -1.2,   -1.2,   -1.2,   -1.0,   -1.2,   -1.2,   -1.2,   -1.2,   -1.2,   -1.1,   -1.1,   -1.1,   -1.0,   -1.0,   -0.9,   -0.9,   -0.8,   -0.7,   -0.7,   -0.6,  999.0,  999.0,  999.0,  999.0,  999.0,  999.0
2001/05/27 11:40,  999.0,   -3.1,   -3.3,   -3.4,   -3.3,   -3.3,   -3.4,   -3.6,   -3.6,   -3.7,   -3.8,   -3.8,   -4.0,   -3.9,   -4.1,   -4.1,   -4.0,   -3.4,   -2.2,   -1.8,   -1.9,   -1.9,   -1.9,   -2.0,   -2.0,   -1.9,   -1.8,   -1.7,   -1.6,   -1.5,   -1.4,   -1.4,   -1.3,   -1.3,   -1.3,   -1.3,   -1.3,   -1.2,   -1.3,   -1.4,   -1.4,   -1.3,   -1.3,   -1.3,   -1.3,   -1.3,   -1.2,   -1.2,   -1.1,   -1.1,   -1.1,   -1.0,   -0.9,   -0.9,   -0.9,   -0.8,   -0.8,  999.0,  999.0,  999.0,  999.0,  999.0,  999.0
2001/05/27 11:50,  999.0,   -3.1,   -3.0,   -2.9,   -3.2,   -3.2,   -3.5,   -3.7,   -3.8,   -3.6,   -3.5,   -3.7,   -3.4,   -3.9,   -3.9,   -4.0,   -4.3,   -2.6,   -1.9,   -1.7,   -1.8,   -1.8,   -1.7,   -1.7,   -1.7,   -1.7,   -1.6,   -1.6,   -1.6,   -1.5,   -1.4,   -1.3,   -1.3,   -1.2,   -1.2,   -1.2,   -1.2,   -1.2,   -1.2,   -1.2,   -1.2,   -1.2,   -1.2,   -1.2,   -1.2,   -1.2,   -1.1,   -1.1,   -1.1,   -1.0,   -0.9,   -0.9,   -0.9,   -0.7,   -0.6,   -0.6,  999.0,  999.0,  999.0,  999.0,  999.0,  999.0,  999.0
2001/05/27 12:00,   -0.1,  999.0,   -3.3,   -3.6,   -3.8,   -3.8,   -3.9,   -3.9,   -3.8,   -3.7,   -3.7,   -3.7,   -3.7,   -3.9,   -4.1,   -4.1,   -4.1,   -3.2,   -1.8,   -1.4,   -1.4,   -1.3,   -1.3,   -1.3,   -1.3,   -1.4,   -1.4,   -1.4,   -1.3,   -1.4,   -1.3,   -1.3,   -1.2,   -1.1,   -1.1,   -1.1,   -1.0,   -1.0,   -0.9,   -0.9,   -1.0,   -1.0,   -1.0,   -1.1,   -1.1,   -1.0,   -1.0,   -1.0,   -1.0,   -0.9,   -1.0,   -1.0,  999.0,  999.0,  999.0,  999.0,  999.0,  999.0,  999.0,  999.0,  999.0,  999.0,  999.0
2001/05/27 12:10,  999.0,   -0.1,   -0.8,   -0.5,   -0.4,   -0.5,  999.0,   -0.1,   -0.9,  999.0,   -1.4,   -1.0,   -1.2,   -1.2,  999.0,   -1.0,   -0.6,   -1.4,   -0.9,  999.0,  999.0,  999.0,  999.0,   -0.2,  999.0,  999.0,   -0.8,   -0.6,   -0.6,   -1.0,   -1.3,   -1.3,   -1.1,   -1.1,   -1.1,   -1.1,   -1.1,   -1.0,   -0.9,   -0.9,   -0.9,   -0.9,   -0.9,   -0.9,   -0.8,   -0.9,   -0.9,   -0.9,   -0.8,   -0.8,   -0.8,   -0.8,   -1.0,  999.0,  999.0,  999.0,  999.0,  999.0,  999.0,  999.0,  999.0,  999.0,  999.0
2001/05/27 12:20,   -0.1,   -0.2,  999.0,   -0.1,   -0.2,  999.0,   -0.1,   -0.3,   -0.4,  999.0,   -0.3,   -0.3,  999.0,  999.0,  999.0,   -0.2,   -0.2,   -0.2,  999.0,  999.0,  999.0,  999.0,  999.0,   -0.1,  999.0,  999.0,  999.0,   -0.2,   -0.3,   -0.7,   -1.1,   -1.1,   -1.2,   -1.1,   -1.1,   -1.1,   -1.0,   -1.0,   -0.9,   -0.9,   -0.9,   -1.0,   -1.0,   -0.9,   -0.9,   -0.9,   -0.9,   -0.9,   -0.9,  999.0,  999.0,  999.0,  999.0,  999.0,  999.0,  999.0,  999.0,  999.0,  999.0,  999.0,  999.0,  999.0,  999.0
2001/05/27 12:30,   -0.2,   -0.1,   -0.4,   -0.0,   -0.4,   -0.2,   -0.3,   -0.3,   -0.4,   -1.1,   -0.2,   -0.3,  999.0,  999.0,  999.0,  999.0,   -0.3,  999.0,  999.0,  999.0,  999.0,  999.0,  999.0,   -0.2,  999.0,   -0.2,  999.0,   -0.0,   -0.1,   -0.5,   -1.0,   -1.2,   -1.2,   -1.1,   -1.1,   -1.1,   -1.0,   -0.9,   -0.9,   -0.9,   -0.8,   -0.8,   -0.7,   -0.8,   -0.7,   -0.8,   -0.8,   -0.7,   -1.0,   -0.9,  999.0,  999.0,  999.0,  999.0,  999.0,  999.0,  999.0,  999.0,  999.0,  999.0,  999.0,  999.0,  999.0
2001/05/27 12:40,    0.1,   -0.4,   -0.2,    0.1,    0.4,    0.3,   -0.1,   -0.2,    0.2,   -0.2,   -0.2,   -0.2,  999.0,  999.0,  999.0,  999.0,   -0.2,  999.0,   -0.0,  999.0,  999.0,   -0.4,   -0.1,   -0.1,  999.0,    0.0,   -0.1,   -0.1,    0.0,   -0.1,   -0.8,   -1.0,   -1.2,   -1.1,   -1.1,   -1.0,   -1.0,   -0.9,   -0.9,   -0.9,   -0.8,   -0.8,   -0.8,   -0.8,   -0.7,   -0.6,   -0.5,   -0.5,   -0.4,   -0.4,   -0.6,  999.0,  999.0,  999.0,  999.0,  999.0,  999.0,  999.0,  999.0,  999.0,  999.0,  999.0,  999.0
2001/05/27 12:50,   -0.1,    0.2,    0.2,    0.1,    0.0,    0.1,   -0.2,   -0.1,   -0.3,   -0.3,   -0.2,   -0.3,   -0.2,  999.0,  999.0,  999.0,  999.0,   -0.2,   -0.3,  999.0,   -0.4,   -0.3,   -0.3,   -0.2,   -0.1,  999.0,  999.0,   -0.1,    0.0,   -0.3,   -0.7,   -1.1,   -1.1,   -1.1,   -1.1,   -1.1,   -1.0,   -1.0,   -1.0,   -0.9,   -0.9,   -0.9,   -0.9,   -0.8,   -0.8,   -0.8,   -0.8,   -0.8,   -0.8,   -0.7,   -0.6,  999.0,  999.0,  999.0,  999.0,  999.0,  999.0,  999.0,  999.0,  999.0,  999.0,  999.0,  999.0
2001/05/27 13:00,    0.0,  999.0,  999.0,    0.1,    0.2,    0.1,   -0.1,   -0.2,   -0.5,   -0.3,   -0.3,   -0.3,  999.0,  999.0,  999.0,  999.0,  999.0,   -0.3,  999.0,  999.0,   -0.3,   -0.3,   -0.2,   -0.1,   -0.1,    0.1,  999.0,  999.0,    0.2,    0.0,   -0.1,   -0.7,   -0.9,   -0.9,   -0.9,   -0.9,   -0.9,   -0.9,   -0.9,   -0.8,   -0.8,   -0.8,   -0.8,   -0.8,   -0.8,   -1.0,   -0.8,   -0.7,   -0.8,   -0.6,   -0.8,  999.0,  999.0,  999.0,  999.0,  999.0,  999.0,  999.0,  999.0,  999.0,  999.0,  999.0,  999.0
2001/05/27 13:10,   -0.1,   -0.0,    0.3,    0.2,    0.2,   -0.3,   -0.1,   -0.1,   -0.2,   -0.2,   -0.1,   -0.2,  999.0,  999.0,  999.0,  999.0,  999.0,  999.0,    0.0,    0.1,   -0.2,   -0.2,   -0.2,   -0.3,   -0.3,   -0.1,   -0.2,  999.0,    0.1,  999.0,  999.0,  999.0,  999.0,   -0.8,   -0.9,   -0.8,   -0.8,   -0.8,   -0.7,   -0.7,   -0.7,   -0.7,   -0.7,   -0.8,   -0.8,   -0.7,   -0.7,   -0.6,   -0.6,   -0.8,   -0.6,  999.0,  999.0,  999.0,  999.0,  999.0,  999.0,  999.0,  999.0,  999.0,  999.0,  999.0,  999.0
2001/05/27 13:20,   -0.0,    0.1,   -0.3,    0.0,    0.3,    0.3,   -0.3,   -0.2,   -0.2,   -0.2,   -0.2,   -0.2,  999.0,  999.0,  999.0,  999.0,  999.0,  999.0,  999.0,  999.0,   -0.3,   -0.1,   -0.0,   -0.1,   -0.1,   -0.0,   -0.0,   -0.1,  999.0,   -0.1,  999.0,   -1.0,   -0.8,   -0.9,   -1.0,   -0.9,   -0.9,   -0.8,   -0.8,   -0.7,   -0.7,   -0.7,   -0.8,   -0.8,   -0.7,   -0.8,   -0.8,   -0.8,   -0.9,   -0.7,  999.0,  999.0,  999.0,  999.0,  999.0,  999.0,  999.0,  999.0,  999.0,  999.0,  999.0,  999.0,  999.0
2001/05/27 13:30,   -0.0,   -0.4,   -0.5,   -0.6,   -0.2,    0.3,   -0.2,    0.1,    0.0,   -0.0,  999.0,   -0.0,  999.0,  999.0,  999.0,  999.0,  999.0,  999.0,  999.0,  999.0,  999.0,   -0.0,   -0.1,   -0.0,   -0.0,   -0.0,   -0.0,   -0.0,  999.0,  999.0,   -0.1,  999.0,   -0.9,   -0.8,   -1.0,   -1.0,   -1.0,   -1.0,   -0.9,   -0.9,   -0.8,   -0.8,   -0.8,   -0.7,   -0.7,   -0.7,   -0.7,   -0.7,   -0.7,   -0.6,  999.0,  999.0,   -0.6,  999.0,  999.0,  999.0,  999.0,  999.0,  999.0,  999.0,  999.0,  999.0,  999.0
2001/05/27 13:40,   -0.4,   -0.6,   -0.6,   -0.4,   -0.3,    0.0,    0.1,    0.2,    0.2,    0.3,    0.1,    0.2,   -0.1,  999.0,  999.0,  999.0,  999.0,  999.0,  999.0,  999.0,  999.0,  999.0,  999.0,  999.0,   -0.1,  999.0,   -0.0,   -0.0,   -0.1,  999.0,  999.0,  999.0,  999.0,   -0.3,   -0.3,   -1.0,   -1.0,   -0.9,   -0.9,   -0.8,   -0.8,   -0.8,   -0.8,   -0.7,   -0.7,   -0.7,   -0.6,   -0.6,   -0.6,   -0.6,   -0.6,   -0.6,   -0.5,   -0.6,   -0.5,  999.0,  999.0,  999.0,  999.0,  999.0,  999.0,  999.0,  999.0
2001/05/27 13:50,   -0.2,   -0.4,   -0.4,   -0.2,    0.1,   -0.1,   -0.2,    0.0,    0.2,    0.1,    0.1,    0.2,  999.0,  999.0,  999.0,  999.0,  999.0,  999.0,  999.0,  999.0,  999.0,  999.0,   -0.1,  999.0,  999.0,   -0.0,   -0.1,   -0.1,  999.0,  999.0,  999.0,   -1.3,   -1.2,   -1.0,   -1.1,   -1.2,   -1.2,   -1.2,   -1.2,   -1.2,   -1.1,   -1.1,   -1.1,   -1.1,   -1.1,   -1.1,   -1.1,   -1.0,   -1.0,   -1.0,   -0.9,   -0.8,   -0.7,   -0.7,   -0.6,   -0.4,  999.0,  999.0,  999.0,  999.0,  999.0,  999.0,  999.0
2001/05/27 14:00,   -0.1,   -0.1,   -0.3,   -0.2,   -0.1,   -0.1,    0.0,    0.1,    0.2,    0.2,    0.0,    0.1,  999.0,  999.0,  999.0,  999.0,  999.0,  999.0,  999.0,  999.0,  999.0,  999.0,   -0.2,  999.0,   -0.0,   -0.0,   -0.0,    0.0,    0.1,   -0.4,  999.0,   -0.4,   -0.9,   -1.0,   -1.0,   -1.0,   -1.0,   -1.0,   -0.9,   -0.9,   -0.9,   -0.8,   -0.9,   -0.8,   -0.9,   -0.8,   -0.8,   -0.8,   -0.8,   -0.7,   -0.7,   -0.6,   -0.6,   -0.7,  999.0,  999.0,  999.0,  999.0,  999.0,  999.0,  999.0,  999.0,  999.0
2001/05/27 14:10,   -0.1,   -0.4,   -0.3,   -0.3,   -0.1,   -0.1,    0.0,    0.2,    0.2,    0.1,    0.1,    0.1,  999.0,  999.0,  999.0,  999.0,  999.0,  999.0,  999.0,  999.0,    0.0,    0.1,  999.0,  999.0,  999.0,   -0.1,   -0.1,   -0.3,   -0.9,   -0.9,   -1.0,   -1.0,   -1.0,   -1.0,   -1.1,   -1.0,   -0.8,   -0.9,   -0.9,   -0.9,   -1.0,   -1.0,   -1.0,   -0.8,   -0.9,   -0.9,   -0.8,   -0.8,   -0.8,   -0.8,   -0.8,   -0.7,  999.0,  999.0,  999.0,  999.0,  999.0,  999.0,  999.0,  999.0,  999.0,  999.0,  999.0
2001/05/27 14:20,   -0.4,   -0.4,   -0.5,   -0.3,   -0.2,   -0.2,   -0.2,   -0.1,    0.1,   -0.1,  999.0,    0.0,  999.0,  999.0,  999.0,  999.0,  999.0,  999.0,  999.0,  999.0,  999.0,    0.1,   -0.0,   -0.1,   -0.0,   -0.1,   -0.0,   -0.5,   -0.7,   -0.8,   -0.8,   -0.9,   -1.0,   -1.0,   -1.0,   -1.0,   -1.0,   -0.9,   -0.9,   -0.8,   -0.9,   -0.9,   -0.9,   -0.9,   -0.9,   -0.8,   -0.8,   -0.8,   -0.9,   -0.8,   -0.8,   -0.7,   -0.7,   -0.7,   -0.7,   -0.7,  999.0,  999.0,  999.0,  999.0,  999.0,  999.0,  999.0
2001/05/27 14:30,   -0.2,   -0.1,    0.2,   -0.0,   -0.0,   -0.0,    0.0,    0.1,    0.1,  999.0,  999.0,  999.0,  999.0,  999.0,  999.0,  999.0,  999.0,  999.0,  999.0,  999.0,    0.1,  999.0,   -0.1,    0.0,   -0.3,   -0.5,   -0.6,   -0.9,   -0.9,   -0.9,   -0.9,   -0.9,   -0.9,   -0.9,   -1.0,   -0.9,   -0.9,   -0.8,   -0.9,   -0.9,   -0.8,   -0.8,   -0.8,   -0.9,   -0.9,   -0.9,   -0.9,   -0.8,   -0.8,   -0.8,   -0.7,   -0.7,   -0.7,   -0.5,   -0.6,   -0.6,  999.0,  999.0,  999.0,  999.0,  999.0,  999.0,  999.0
2001/05/27 14:40,   -0.1,   -0.3,   -0.3,    0.0,   -0.2,   -0.2,   -0.2,    0.0,    0.2,    0.1,  999.0,  999.0,  999.0,  999.0,  999.0,  999.0,  999.0,  999.0,  999.0,  999.0,  999.0,    0.3,    0.2,    0.1,    0.1,    0.0,   -0.1,   -0.3,   -0.5,   -0.4,   -0.5,   -0.6,   -0.5,   -0.3,   -0.4,   -0.5,   -0.5,   -0.4,  999.0,  999.0,  999.0,  999.0,  999.0,  999.0,  999.0,  999.0,  999.0,  999.0,  999.0,  999.0,  999.0,  999.0,  999.0,  999.0,  999.0,  999.0,  999.0,  999.0,  999.0,  999.0,  999.0,  999.0,  999.0
2001/05/27 14:50,   -0.1,   -0.2,   -0.1,    0.2,    0.1,    0.2,    0.2,    0.1,    0.2,    0.1,  999.0,  999.0,  999.0,  999.0,  999.0,  999.0,  999.0,  999.0,  999.0,  999.0,  999.0,    0.3,    0.3,  999.0,    0.3,    0.2,    0.2,    0.3,    0.3,  999.0,  999.0,  999.0,  999.0,  999.0,  999.0,  999.0,  999.0,  999.0,  999.0,  999.0,  999.0,  999.0,  999.0,  999.0,  999.0,  999.0,  999.0,  999.0,  999.0,  999.0,  999.0,  999.0,  999.0,  999.0,  999.0,  999.0,  999.0,  999.0,  999.0,  999.0,  999.0,  999.0,  999.0
2001/05/27 15:00,   -0.4,   -0.5,   -0.3,   -0.0,   -0.1,    0.1,    0.1,    0.1,    0.1,    0.1,  999.0,  999.0,  999.0,  999.0,  999.0,  999.0,  999.0,  999.0,  999.0,  999.0,    0.3,    0.2,    0.3,    0.2,  999.0,    0.4,    0.3,    0.3,    0.3,  999.0,  999.0,  999.0,  999.0,  999.0,  999.0,  999.0,  999.0,  999.0,  999.0,   -0.6,   -0.5,  999.0,   -0.5,   -0.4,  999.0,  999.0,  999.0,  999.0,  999.0,  999.0,   -0.3,  999.0,  999.0,  999.0,  999.0,  999.0,  999.0,  999.0,  999.0,  999.0,  999.0,  999.0,  999.0
2001/05/27 15:10,    0.1,   -0.1,   -0.1,   -0.3,   -0.3,   -0.2,   -0.1,    0.1,   -0.1,   -0.1,   -0.7,  999.0,   -0.1,  999.0,  999.0,  999.0,   -0.4,   -0.1,  999.0,  999.0,  999.0,    0.1,    0.1,    0.0,  999.0,  999.0,  999.0,    0.1,    0.2,  999.0,    0.3,    0.3,   -0.1,   -0.3,   -0.8,   -0.8,   -0.7,   -0.8,   -0.7,   -0.7,   -0.7,   -0.8,   -0.7,   -0.7,   -0.8,   -0.7,   -0.7,   -0.8,   -0.7,   -0.7,   -0.6,   -0.6,   -0.6,   -0.6,   -0.6,   -0.5,   -0.3,  999.0,  999.0,  999.0,  999.0,  999.0,  999.0
2001/05/27 15:20,   -0.2,   -0.4,  999.0,   -0.0,   -0.2,    0.1,    0.1,    0.2,    0.3,    0.1,    0.0,    0.0,  999.0,  999.0,  999.0,  999.0,   -0.3,   -0.4,  999.0,  999.0,  999.0,    0.1,    0.0,   -0.0,   -0.0,  999.0,  999.0,  999.0,    0.1,    0.2,    0.2,   -0.7,   -0.6,   -0.7,   -0.7,   -0.5,   -0.6,   -0.5,   -0.6,   -0.6,   -0.5,   -0.5,   -0.5,   -0.6,   -0.6,   -0.6,   -0.7,   -0.6,   -0.5,   -0.6,   -0.6,   -0.5,  999.0,   -0.6,   -0.6,   -0.7,   -0.4,  999.0,   -0.5,   -0.3,   -0.2,  999.0,  999.0
2001/05/27 15:30,    0.0,    0.0,   -0.1,   -0.0,   -0.2,   -0.3,   -0.1,   -0.0,   -0.0,   -0.0,   -0.1,  999.0,  999.0,  999.0,  999.0,   -0.1,  999.0,  999.0,  999.0,  999.0,  999.0,  999.0,    0.0,    0.1,   -0.0,  999.0,  999.0,    0.3,    0.2,    0.1,   -0.0,   -0.5,   -1.0,   -0.9,   -0.8,   -0.9,   -0.9,   -0.8,   -0.7,   -0.9,   -0.8,   -1.0,   -0.9,   -0.9,   -0.9,   -0.9,   -0.9,   -0.8,   -0.8,   -0.7,   -0.7,   -0.6,   -0.6,  999.0,   -0.5,   -0.5,   -0.4,   -0.5,   -0.5,  999.0,  999.0,  999.0,  999.0
2001/05/27 15:40,    0.2,    0.2,    0.1,    0.1,    0.1,    0.0,    0.1,    0.2,    0.0,  999.0,  999.0,    0.2,  999.0,  999.0,  999.0,    0.0,    0.0,    0.0,  999.0,  999.0,   -0.1,   -0.1,    0.0,   -0.1,   -0.1,    0.0,   -0.0,   -0.2,   -0.3,   -0.6,   -0.8,   -0.8,   -0.9,   -0.9,   -0.9,   -1.0,   -1.0,   -1.1,   -1.0,   -0.9,   -0.9,   -0.9,   -0.8,   -1.0,   -1.0,   -0.9,   -0.9,   -0.9,   -0.8,   -0.9,   -1.0,   -0.8,   -0.7,   -0.7,   -0.7,   -0.6,   -0.5,   -0.5,  999.0,  999.0,  999.0,  999.0,  999.0
2001/05/27 15:50,  999.0,  999.0,   -0.2,   -0.1,   -0.2,   -0.1,   -0.2,    0.0,    0.2,    0.2,    0.1,    0.4,  999.0,  999.0,  999.0,    0.2,  999.0,    0.3,    0.2,  999.0,    0.1,    0.4,    0.0,    0.1,   -0.2,    0.2,    0.1,    0.5,    0.2,  999.0,  999.0,  999.0,  999.0,  999.0,  999.0,  999.0,  999.0,   -0.5,  999.0,   -0.7,   -0.5,   -0.6,   -0.6,   -0.7,   -0.7,   -0.8,   -0.8,   -0.9,   -0.8,   -0.7,   -0.7,   -0.6,   -0.5,   -0.5,   -0.4,   -0.4,   -0.5,   -0.4,   -0.3,   -0.2,    0.1,  999.0,  999.0
2001/05/27 16:00,   -0.1,   -0.2,   -0.3,   -0.3,   -0.2,   -0.1,   -0.1,  999.0,    0.2,  999.0,    0.3,    0.2,  999.0,  999.0,  999.0,    0.2,    0.1,    0.2,    0.2,    0.1,  999.0,  999.0,    0.5,    0.1,   -0.3,    0.3,  999.0,    0.0,   -0.0,   -0.1,  999.0,  999.0,  999.0,  999.0,  999.0,  999.0,  999.0,  999.0,  999.0,  999.0,  999.0,   -1.0,   -0.9,   -0.7,   -0.7,   -0.6,   -0.6,   -0.6,   -0.7,   -0.6,   -0.5,   -0.5,   -0.6,   -0.7,   -0.7,   -0.7,   -0.3,   -0.2,    0.0,    0.0,    0.2,  999.0,   -0.1
2001/05/27 16:10,   -0.3,   -0.7,   -1.0,   -0.8,   -0.6,   -0.2,   -0.2,   -0.4,   -0.1,   -0.1,   -0.0,  999.0,  999.0,  999.0,   -0.1,    0.1,  999.0,    0.0,   -0.1,  999.0,    0.1,  999.0,  999.0,  999.0,   -0.2,  999.0,  999.0,   -0.3,  999.0,  999.0,  999.0,  999.0,   -0.4,   -0.2,  999.0,  999.0,  999.0,  999.0,  999.0,  999.0,  999.0,  999.0,   -0.9,   -1.0,   -0.9,   -0.9,   -0.9,  999.0,  999.0,  999.0,  999.0,  999.0,  999.0,  999.0,  999.0,  999.0,  999.0,  999.0,  999.0,  999.0,  999.0,  999.0,  999.0
2001/05/27 16:20,   -0.2,   -0.4,   -0.3,   -0.1,   -0.1,    0.1,    0.2,    0.5,    0.3,    0.3,    0.1,  999.0,  999.0,  999.0,    0.2,    0.2,    0.2,    0.0,    0.0,   -0.2,   -0.1,   -0.2,   -0.3,   -0.3,   -0.1,    0.0,   -0.0,   -0.0,   -0.1,  999.0,   -0.1,  999.0,   -0.3,   -0.4,   -0.6,   -0.6,   -0.6,  999.0,  999.0,  999.0,  999.0,  999.0,  999.0,  999.0,  999.0,  999.0,  999.0,  999.0,  999.0,  999.0,  999.0,  999.0,  999.0,  999.0,  999.0,  999.0,  999.0,  999.0,  999.0,  999.0,  999.0,  999.0,  999.0
2001/05/27 16:30,   -0.2,   -0.3,   -0.4,   -0.3,   -0.2,   -0.1,   -0.0,   -0.1,   -0.1,   -0.1,   -0.1,  999.0,  999.0,  999.0,   -0.1,  999.0,  999.0,    0.1,    0.1,  999.0,    0.2,    0.3,    0.3,  999.0,    0.3,    0.3,    0.2,    0.3,    0.1,   -0.2,   -0.2,   -0.3,   -0.3,   -0.5,   -0.5,   -0.4,   -0.5,   -0.4,   -0.4,   -0.3,  999.0,  999.0,  999.0,  999.0,  999.0,  999.0,  999.0,  999.0,  999.0,  999.0,  999.0,  999.0,  999.0,  999.0,  999.0,  999.0,  999.0,  999.0,  999.0,  999.0,  999.0,  999.0,  999.0
2001/05/27 16:40,   -0.0,    0.2,    0.5,    0.7,    0.9,    0.5,    0.5,    0.6,    0.4,    0.2,    0.4,  999.0,  999.0,    0.2,    0.1,    0.1,    0.1,   -0.1,   -0.1,   -0.2,   -0.1,  999.0,    0.1,    0.0,   -0.1,    0.0,    0.0,  999.0,   -0.2,   -0.1,    0.0,   -0.2,   -0.4,   -0.5,   -0.6,   -0.5,   -0.6,   -0.5,  999.0,  999.0,  999.0,  999.0,  999.0,  999.0,  999.0,  999.0,  999.0,  999.0,  999.0,  999.0,  999.0,  999.0,  999.0,  999.0,  999.0,  999.0,  999.0,  999.0,  999.0,  999.0,  999.0,  999.0,  999.0
2001/05/27 16:50,  999.0,   -0.2,   -0.1,   -0.2,   -0.1,   -0.1,    0.3,    0.3,    0.3,    0.2,    0.2,    0.1,    0.0,    0.0,    0.1,    0.0,  999.0,   -0.4,   -0.2,  999.0,    0.1,  999.0,    0.0,   -0.1,   -0.1,   -0.1,    0.0,   -0.1,   -0.0,   -0.1,   -0.2,   -0.8,   -0.7,   -0.9,   -0.3,   -0.6,   -0.6,  999.0,  999.0,  999.0,  999.0,  999.0,  999.0,  999.0,  999.0,  999.0,  999.0,  999.0,  999.0,  999.0,  999.0,  999.0,  999.0,  999.0,  999.0,  999.0,  999.0,  999.0,  999.0,  999.0,  999.0,  999.0,  999.0
2001/05/27 17:00,    0.0,    0.2,    0.5,    0.4,    0.3,    0.2,    0.2,    0.4,    0.3,    0.2,    0.4,    0.3,    0.3,    0.3,    0.3,    0.3,    0.4,    0.4,    0.1,   -0.1,  999.0,  999.0,  999.0,   -0.3,  999.0,    0.1,   -0.0,   -0.1,   -0.1,   -0.2,  999.0,  999.0,  999.0,  999.0,   -0.0,   -0.0,   -0.1,  999.0,  999.0,  999.0,  999.0,  999.0,  999.0,  999.0,  999.0,  999.0,  999.0,  999.0,  999.0,  999.0,  999.0,  999.0,  999.0,  999.0,  999.0,  999.0,  999.0,  999.0,  999.0,  999.0,  999.0,  999.0,  999.0
2001/05/27 17:10,    0.1,    0.1,    0.2,    0.0,    0.4,    0.3,    0.3,    0.3,    0.3,    0.3,    0.3,    0.2,    0.1,    0.2,    0.4,    0.5,    0.1,  999.0,    0.0,  999.0,  999.0,  999.0,    0.1,    0.1,    0.0,    0.1,    0.1,    0.2,   -0.1,  999.0,  999.0,  999.0,  999.0,  999.0,    0.1,   -0.2,  999.0,   -0.2,  999.0,  999.0,  999.0,  999.0,  999.0,  999.0,  999.0,  999.0,  999.0,  999.0,  999.0,  999.0,  999.0,  999.0,  999.0,  999.0,  999.0,  999.0,  999.0,  999.0,  999.0,  999.0,  999.0,  999.0,  999.0
2001/05/27 17:20,   -0.0,   -0.1,    0.2,    0.3,    0.3,    0.3,    0.4,    0.5,    0.4,    0.3,    0.2,    0.4,    0.4,    0.3,    0.4,    0.7,    0.6,  999.0,   -0.1,   -0.0,   -0.3,    0.1,   -0.1,    0.1,    0.1,    0.0,   -0.0,   -0.0,   -0.1,   -0.0,   -0.0,  999.0,    0.1,    0.1,    0.2,  999.0,  999.0,  999.0,  999.0,  999.0,  999.0,  999.0,  999.0,  999.0,  999.0,  999.0,  999.0,  999.0,  999.0,  999.0,  999.0,  999.0,  999.0,  999.0,  999.0,  999.0,  999.0,  999.0,  999.0,  999.0,  999.0,  999.0,  999.0
2001/05/27 17:30,   -0.2,   -0.2,   -0.2,   -0.1,   -0.3,   -0.0,   -0.0,    0.2,    0.2,    0.3,    0.4,    0.4,  999.0,  999.0,    0.4,    0.4,    0.2,    0.2,    0.2,    0.3,    0.1,    0.2,    0.2,    0.1,    0.2,    0.3,    0.3,    0.3,    0.3,    0.3,  999.0,    0.2,    0.2,    0.3,    0.2,  999.0,  999.0,  999.0,  999.0,  999.0,  999.0,  999.0,  999.0,  999.0,  999.0,  999.0,  999.0,  999.0,  999.0,  999.0,  999.0,  999.0,  999.0,  999.0,  999.0,  999.0,  999.0,  999.0,  999.0,  999.0,  999.0,  999.0,  999.0
2001/05/27 17:40,   -0.2,   -0.3,   -0.2,    0.1,    0.0,  999.0,   -0.1,    0.0,    0.1,    0.3,    0.3,    0.3,  999.0,    0.3,    0.2,    0.3,    0.3,    0.2,    0.3,    0.1,  999.0,   -0.0,   -0.1,    0.2,    0.2,    0.1,    0.1,    0.2,  999.0,    0.2,    0.1,    0.0,  999.0,  999.0,  999.0,  999.0,  999.0,  999.0,  999.0,  999.0,  999.0,  999.0,  999.0,  999.0,  999.0,  999.0,  999.0,  999.0,  999.0,  999.0,  999.0,  999.0,  999.0,  999.0,  999.0,  999.0,  999.0,  999.0,  999.0,  999.0,  999.0,  999.0,  999.0
2001/05/27 17:50,   -0.2,   -0.5,   -0.5,   -0.2,   -0.1,   -0.2,   -0.1,   -0.1,   -0.1,   -0.1,    0.1,    0.0,    0.2,    0.2,  999.0,   -0.0,   -0.1,   -0.0,    0.2,    0.1,  999.0,    0.1,    0.1,    0.0,   -0.3,    0.3,    0.2,  999.0,    0.1,  999.0,    0.1,    0.1,    0.3,  999.0,  999.0,  999.0,  999.0,  999.0,  999.0,  999.0,  999.0,  999.0,  999.0,  999.0,  999.0,  999.0,  999.0,  999.0,  999.0,  999.0,  999.0,  999.0,  999.0,  999.0,  999.0,  999.0,  999.0,  999.0,  999.0,  999.0,  999.0,  999.0,  999.0
2001/05/27 18:00,   -0.1,   -0.0,    0.1,    0.4,    0.3,    0.3,    0.4,    0.5,    0.5,    0.7,    0.8,    0.4,    0.5,    0.4,  999.0,    0.3,    0.2,    0.4,    0.1,    0.3,    0.3,    0.3,    0.1,  999.0,    0.2,   -0.0,    0.0,  999.0,  999.0,  999.0,    0.1,    0.1,    0.1,  999.0,  999.0,  999.0,  999.0,  999.0,  999.0,  999.0,  999.0,  999.0,  999.0,  999.0,  999.0,  999.0,  999.0,  999.0,  999.0,  999.0,  999.0,  999.0,  999.0,  999.0,  999.0,  999.0,  999.0,  999.0,  999.0,  999.0,  999.0,  999.0,  999.0
2001/05/27 18:10,   -0.1,  999.0,   -0.1,  999.0,   -0.0,    0.0,    0.1,    0.3,    0.4,    0.4,    0.5,    0.4,    0.3,    0.3,    0.3,    0.3,    0.2,    0.2,    0.2,  999.0,    0.1,    0.1,    0.1,    0.1,    0.2,  999.0,  999.0,  999.0,  999.0,  999.0,    0.2,    0.1,    0.1,   -0.2,   -0.2,  999.0,   -0.1,  999.0,  999.0,  999.0,  999.0,  999.0,  999.0,  999.0,  999.0,  999.0,  999.0,  999.0,  999.0,  999.0,  999.0,  999.0,  999.0,  999.0,  999.0,  999.0,  999.0,  999.0,  999.0,  999.0,  999.0,  999.0,  999.0
2001/05/27 18:20,  999.0,   -0.1,   -0.1,   -0.0,    0.1,   -0.0,  999.0,    0.4,    0.6,    0.5,    0.5,    0.4,    0.4,    0.2,    0.4,    0.4,    0.4,    0.3,    0.3,    0.3,    0.1,   -0.1,    0.3,    0.4,    0.7,  999.0,  999.0,  999.0,  999.0,  999.0,    0.2,  999.0,  999.0,   -0.2,   -0.0,   -0.0,    0.2,  999.0,  999.0,  999.0,  999.0,  999.0,  999.0,  999.0,  999.0,  999.0,  999.0,  999.0,  999.0,  999.0,  999.0,  999.0,  999.0,  999.0,  999.0,  999.0,  999.0,  999.0,  999.0,  999.0,  999.0,  999.0,  999.0
2001/05/27 18:30,  999.0,   -0.3,   -0.3,   -0.2,   -0.1,    0.3,    0.3,    0.5,    0.7,    0.7,    0.6,    0.6,    0.5,    0.5,    0.4,    0.3,    0.3,    0.4,    0.4,    0.3,    0.5,  999.0,  999.0,  999.0,    0.5,    0.2,  999.0,  999.0,  999.0,  999.0,  999.0,    0.1,    0.3,    0.1,    0.2,    0.0,    0.3,    0.1,  999.0,  999.0,  999.0,  999.0,  999.0,  999.0,  999.0,  999.0,  999.0,  999.0,  999.0,  999.0,  999.0,  999.0,  999.0,  999.0,  999.0,  999.0,  999.0,  999.0,  999.0,  999.0,  999.0,  999.0,  999.0
2001/05/27 18:40,  999.0,   -0.3,   -0.3,   -0.2,   -0.1,    0.0,    0.3,    0.3,    0.5,    0.4,    0.3,    0.3,    0.2,    0.1,   -0.1,   -0.2,   -0.2,   -0.1,    0.2,  999.0,  999.0,  999.0,  999.0,    0.2,    0.3,   -0.1,  999.0,  999.0,  999.0,  999.0,    0.0,    0.1,    0.2,    0.1,    0.0,    0.0,    0.3,    0.3,  999.0,  999.0,  999.0,  999.0,  999.0,  999.0,  999.0,  999.0,  999.0,  999.0,  999.0,  999.0,  999.0,  999.0,  999.0,  999.0,  999.0,  999.0,  999.0,  999.0,  999.0,  999.0,  999.0,  999.0,  999.0
2001/05/27 18:50,   -0.2,   -0.2,   -0.0,  999.0,  999.0,    0.4,    0.6,    0.7,    0.8,    0.9,    0.7,    0.8,    0.7,    0.5,    0.5,    0.4,    0.3,    0.4,    0.4,    0.5,    0.5,    0.2,    0.0,   -0.0,    0.1,    0.6,  999.0,  999.0,  999.0,    0.4,  999.0,    0.2,    0.1,    0.2,    0.1,    0.2,  999.0,  999.0,  999.0,  999.0,  999.0,  999.0,  999.0,  999.0,  999.0,  999.0,  999.0,  999.0,  999.0,  999.0,  999.0,  999.0,  999.0,  999.0,  999.0,  999.0,  999.0,  999.0,  999.0,  999.0,  999.0,  999.0,  999.0
2001/05/27 19:00,   -0.3,  999.0,   -0.1,   -0.1,    0.2,    0.3,    0.1,    0.4,    0.5,    0.5,    0.6,    0.6,    0.4,    0.3,    0.3,    0.3,  999.0,    0.2,    0.3,    0.3,    0.2,    0.1,   -0.0,   -0.2,   -0.2,  999.0,  999.0,    0.2,    0.2,  999.0,  999.0,    0.0,    0.0,    0.1,   -0.1,  999.0,  999.0,  999.0,  999.0,  999.0,  999.0,  999.0,  999.0,  999.0,  999.0,  999.0,  999.0,  999.0,  999.0,  999.0,  999.0,  999.0,  999.0,  999.0,  999.0,  999.0,  999.0,  999.0,  999.0,  999.0,  999.0,  999.0,  999.0
2001/05/27 19:10,   -0.1,   -0.1,   -0.1,    0.1,   -0.8,    0.3,    0.4,    0.5,    0.6,    0.7,    0.6,    0.5,    0.6,   -0.3,    0.1,    0.3,   -0.6,   -0.7,    0.2,   -0.2,    0.2,   -0.2,   -0.5,   -0.4,   -0.6,   -0.7,   -0.5,   -0.3,    0.1,  999.0,   -0.1,    0.1,    0.1,    0.1,    0.1,   -0.0,  999.0,  999.0,  999.0,  999.0,  999.0,  999.0,  999.0,  999.0,  999.0,  999.0,  999.0,  999.0,  999.0,  999.0,  999.0,  999.0,  999.0,  999.0,  999.0,  999.0,  999.0,  999.0,  999.0,  999.0,  999.0,  999.0,  999.0
2001/05/27 19:20,    1.0,    0.5,    0.1,    0.5,   -0.1,    0.0,   -0.0,    0.0,    0.2,    0.3,    0.5,  999.0,    0.3,   -0.5,   -0.5,    0.0,   -1.1,   -1.0,   -0.3,   -1.1,   -0.6,   -0.3,   -0.5,   -0.2,  999.0,  999.0,   -0.1,   -0.0,  999.0,  999.0,    0.1,    0.2,    0.3,    0.2,    0.2,  999.0,  999.0,  999.0,  999.0,  999.0,  999.0,  999.0,  999.0,  999.0,  999.0,  999.0,  999.0,  999.0,  999.0,  999.0,  999.0,  999.0,  999.0,  999.0,  999.0,  999.0,  999.0,  999.0,  999.0,  999.0,  999.0,  999.0,  999.0
2001/05/27 19:30,    0.1,    1.0,    1.0,    1.1,    0.3,    0.2,    0.2,    0.1,    0.3,    0.3,    0.2,   -1.1,    0.2,   -2.3,   -1.9,   -1.6,   -1.6,   -1.6,   -1.7,   -1.6,   -1.1,   -0.9,   -0.2,   -0.0,  999.0,   -0.1,    0.2,    0.2,  999.0,    0.1,   -0.0,   -0.1,   -0.2,   -0.1,  999.0,  999.0,  999.0,  999.0,  999.0,  999.0,  999.0,  999.0,  999.0,  999.0,  999.0,  999.0,  999.0,  999.0,  999.0,  999.0,  999.0,  999.0,  999.0,  999.0,  999.0,  999.0,  999.0,  999.0,  999.0,  999.0,  999.0,  999.0,  999.0
2001/05/27 19:40,   -1.1,    0.2,   -0.1,    0.3,    0.5,    0.1,    0.1,    0.3,    0.4,    1.2,    0.2,    0.3,   -1.5,   -2.5,   -2.0,  999.0,   -1.5,   -1.0,   -0.8,   -1.1,   -1.5,   -1.5,   -1.1,   -0.8,   -0.7,   -0.5,   -0.3,   -0.3,  999.0,  999.0,   -0.1,   -0.3,  999.0,  999.0,  999.0,  999.0,  999.0,  999.0,  999.0,  999.0,  999.0,  999.0,  999.0,  999.0,  999.0,  999.0,  999.0,  999.0,  999.0,  999.0,  999.0,  999.0,  999.0,  999.0,  999.0,  999.0,  999.0,  999.0,  999.0,  999.0,  999.0,  999.0,  999.0
2001/05/27 19:50,   -4.4,   -5.2,   -4.1,   -4.1,   -4.2,   -4.6,   -4.1,   -3.0,   -3.9,   -4.8,   -4.8,   -4.7,   -4.7,   -3.1,   -2.4,   -2.3,   -2.4,   -2.4,   -2.4,   -2.5,   -2.4,   -2.2,   -1.9,   -1.6,   -1.4,   -0.8,   -0.3,  999.0,  999.0,  999.0,   -0.2,   -0.3,  999.0,   -0.6,   -0.4,  999.0,  999.0,  999.0,  999.0,  999.0,  999.0,  999.0,  999.0,  999.0,  999.0,  999.0,  999.0,  999.0,  999.0,  999.0,  999.0,  999.0,  999.0,  999.0,  999.0,  999.0,  999.0,  999.0,  999.0,  999.0,  999.0,  999.0,  999.0
2001/05/27 20:00,   -5.3,   -5.2,   -5.1,   -5.0,   -4.9,   -4.2,   -5.3,   -5.0,   -5.4,   -5.7,   -5.5,   -5.3,   -5.1,   -4.1,   -3.6,   -3.4,   -3.5,   -3.6,   -3.6,   -3.4,   -3.2,   -2.9,   -2.5,   -2.0,   -1.6,   -1.2,   -1.0,   -0.7,   -0.7,   -0.4,  999.0,  999.0,  999.0,   -0.5,  999.0,  999.0,  999.0,  999.0,  999.0,  999.0,  999.0,  999.0,  999.0,  999.0,  999.0,  999.0,  999.0,  999.0,  999.0,  999.0,  999.0,  999.0,  999.0,  999.0,  999.0,  999.0,  999.0,  999.0,  999.0,  999.0,  999.0,  999.0,  999.0
2001/05/27 20:10,   -6.2,   -6.4,   -6.8,   -7.0,   -7.0,   -6.8,   -6.7,   -6.8,   -6.7,   -6.1,   -6.2,   -6.0,   -5.6,   -4.4,   -3.8,   -3.4,   -3.4,   -3.4,   -3.1,   -2.6,   -2.1,   -2.0,   -1.7,   -1.4,   -1.4,   -1.2,   -1.1,   -1.0,   -0.9,   -0.7,   -0.6,   -0.4,   -0.2,   -0.1,    0.1,  999.0,   -0.1,  999.0,  999.0,  999.0,  999.0,  999.0,  999.0,  999.0,  999.0,  999.0,  999.0,  999.0,  999.0,  999.0,  999.0,  999.0,  999.0,  999.0,  999.0,  999.0,  999.0,  999.0,  999.0,  999.0,  999.0,  999.0,  999.0
2001/05/27 20:20,   -3.2,   -4.7,   -5.0,   -4.8,   -4.6,   -4.6,   -4.1,   -4.3,   -4.8,   -5.1,   -5.1,   -5.1,   -4.9,   -3.2,   -1.9,   -1.6,   -1.5,   -1.4,   -1.4,   -1.3,   -1.1,   -0.8,   -0.6,   -0.5,   -0.6,   -0.7,   -0.7,   -0.6,   -0.4,   -0.3,   -0.1,    0.1,    0.3,    0.2,    0.1,    0.3,   -0.0,  999.0,  999.0,  999.0,  999.0,  999.0,  999.0,  999.0,  999.0,  999.0,  999.0,  999.0,  999.0,  999.0,  999.0,  999.0,  999.0,  999.0,  999.0,  999.0,  999.0,  999.0,  999.0,  999.0,  999.0,  999.0,  999.0
2001/05/27 20:30,   -4.3,   -4.3,   -4.4,   -4.6,   -4.6,   -4.7,   -4.7,   -4.7,   -4.6,   -4.8,   -4.8,   -5.1,   -4.8,   -2.3,   -1.8,   -1.7,   -1.5,   -1.4,   -1.3,   -1.2,   -0.9,   -0.9,   -0.9,   -0.6,   -0.8,   -1.0,   -0.8,   -0.7,   -0.8,   -0.5,   -0.4,   -0.4,   -0.3,    0.1,    0.2,    0.5,    0.8,    0.9,  999.0,  999.0,  999.0,  999.0,  999.0,  999.0,  999.0,  999.0,  999.0,  999.0,  999.0,  999.0,  999.0,  999.0,  999.0,  999.0,  999.0,  999.0,  999.0,  999.0,  999.0,  999.0,  999.0,  999.0,  999.0
2001/05/27 20:40,   -1.9,   -1.2,   -0.4,   -0.4,   -0.9,   -1.3,   -1.2,   -1.5,   -0.9,   -0.4,   -0.5,   -0.1,   -0.7,   -0.5,   -0.4,   -1.0,   -1.2,   -1.2,   -1.1,   -1.0,   -1.0,   -1.0,   -0.9,   -0.8,   -0.8,   -0.7,   -0.6,   -0.5,   -0.3,   -0.3,    0.1,    0.3,    0.4,    0.5,    0.4,    0.2,    0.1,  999.0,  999.0,  999.0,  999.0,  999.0,  999.0,  999.0,  999.0,  999.0,  999.0,  999.0,  999.0,  999.0,  999.0,  999.0,  999.0,  999.0,  999.0,  999.0,  999.0,  999.0,  999.0,  999.0,  999.0,  999.0,  999.0
2001/05/27 20:50,   -4.1,   -4.1,   -3.9,   -4.9,   -4.8,   -4.3,   -4.5,   -4.2,   -3.9,   -3.8,   -4.0,   -4.2,   -3.7,   -2.0,   -1.7,   -1.5,   -1.4,   -1.3,   -1.1,   -1.0,   -1.0,   -0.9,   -0.8,   -0.6,   -0.7,   -0.7,   -0.5,   -0.6,   -0.4,   -0.1,    0.3,    0.2,    0.5,    0.1,    0.4,    0.3,  999.0,  999.0,  999.0,  999.0,  999.0,  999.0,  999.0,  999.0,  999.0,  999.0,  999.0,  999.0,  999.0,  999.0,  999.0,  999.0,  999.0,  999.0,  999.0,  999.0,  999.0,  999.0,  999.0,  999.0,  999.0,  999.0,  999.0
2001/05/27 21:00,   -0.4,   -0.6,    0.1,    0.6,   -0.8,   -0.8,   -0.7,   -1.7,   -1.7,   -1.8,   -2.1,   -1.7,   -1.8,   -1.3,   -1.4,   -1.3,   -1.3,   -1.2,   -1.0,   -0.8,   -0.8,   -0.7,   -0.7,   -0.5,   -0.3,   -0.5,   -0.3,   -0.5,   -0.3,    0.1,    0.2,    0.1,    0.1,    0.2,  999.0,  999.0,  999.0,  999.0,  999.0,  999.0,  999.0,  999.0,  999.0,  999.0,  999.0,  999.0,  999.0,  999.0,  999.0,  999.0,  999.0,  999.0,  999.0,  999.0,  999.0,  999.0,  999.0,  999.0,  999.0,  999.0,  999.0,  999.0,  999.0
2001/05/27 21:10,   -0.0,   -0.3,    0.1,   -0.2,   -0.3,    0.3,    0.2,   -1.0,    0.1,   -1.0,   -1.1,   -0.4,   -0.7,   -0.6,   -0.6,   -0.6,   -0.8,   -0.8,   -0.4,   -0.4,   -0.7,   -0.7,   -0.6,   -0.5,   -0.7,  999.0,  999.0,  999.0,   -0.0,    0.1,    0.0,    0.1,    0.0,  999.0,    0.3,    0.1,  999.0,  999.0,  999.0,  999.0,  999.0,  999.0,  999.0,  999.0,  999.0,  999.0,  999.0,  999.0,  999.0,  999.0,  999.0,  999.0,  999.0,  999.0,  999.0,  999.0,  999.0,  999.0,  999.0,  999.0,  999.0,  999.0,  999.0
2001/05/27 21:20,    0.1,    0.0,    0.1,   -0.1,   -0.0,   -0.2,   -0.4,   -0.2,    0.2,    0.1,    0.1,    0.0,   -0.0,    0.1,    0.6,    0.0,   -0.0,    0.2,    0.3,    0.3,  999.0,   -0.3,   -0.0,  999.0,  999.0,  999.0,    0.2,    0.3,    0.3,    0.2,    0.2,    0.3,  999.0,    0.5,    0.5,    0.4,    0.0,   -0.2,  999.0,  999.0,  999.0,  999.0,  999.0,  999.0,  999.0,  999.0,  999.0,  999.0,  999.0,  999.0,  999.0,  999.0,  999.0,  999.0,  999.0,  999.0,  999.0,  999.0,  999.0,  999.0,  999.0,  999.0,  999.0
2001/05/27 21:30,   -0.2,   -0.0,    0.1,   -0.1,    0.2,    0.3,    0.1,    0.2,    0.1,    0.0,    0.2,    0.1,    0.2,    0.2,    0.3,    0.4,    0.4,    0.4,    0.6,    0.3,    0.0,    0.3,    0.4,  999.0,  999.0,  999.0,    0.2,    0.4,    0.2,    0.0,   -0.0,  999.0,    0.5,    0.2,    0.2,   -0.2,   -0.2,  999.0,  999.0,  999.0,  999.0,  999.0,  999.0,  999.0,  999.0,  999.0,  999.0,  999.0,  999.0,  999.0,  999.0,  999.0,  999.0,  999.0,  999.0,  999.0,  999.0,  999.0,  999.0,  999.0,  999.0,  999.0,  999.0
2001/05/27 21:40,   -0.7,   -0.2,   -0.0,    0.3,   -0.8,   -0.3,   -0.2,    0.2,    0.0,   -0.3,   -0.1,   -0.2,   -0.1,   -0.1,   -0.1,   -0.2,  999.0,  999.0,  999.0,   -0.3,    0.1,    0.1,    0.0,    0.1,    0.2,   -0.0,    0.1,   -0.0,    0.0,  999.0,  999.0,  999.0,   -0.1,   -0.2,   -0.2,    0.2,  999.0,  999.0,  999.0,  999.0,  999.0,  999.0,  999.0,  999.0,  999.0,  999.0,  999.0,  999.0,  999.0,  999.0,  999.0,  999.0,  999.0,  999.0,  999.0,  999.0,  999.0,  999.0,  999.0,  999.0,  999.0,  999.0,  999.0
2001/05/27 21:50,   -0.1,   -0.5,   -0.2,   -0.6,   -0.3,   -0.1,   -0.0,   -0.2,   -0.2,   -0.4,   -0.5,   -0.3,   -0.2,   -0.3,   -0.4,   -0.4,   -0.3,   -0.4,   -0.3,   -0.2,    0.1,  999.0,    0.2,    0.3,    0.3,    0.3,    0.1,    0.1,  999.0,  999.0,    0.2,    0.1,   -0.0,   -0.2,   -0.2,  999.0,  999.0,  999.0,  999.0,  999.0,  999.0,  999.0,  999.0,  999.0,  999.0,  999.0,  999.0,  999.0,  999.0,  999.0,  999.0,  999.0,  999.0,  999.0,  999.0,  999.0,  999.0,  999.0,  999.0,  999.0,  999.0,  999.0,  999.0
2001/05/27 22:00,   -0.1,   -0.4,   -0.5,   -0.3,   -0.3,   -1.0,   -0.4,   -0.5,   -0.3,   -0.3,   -0.3,   -0.4,   -0.3,   -0.4,   -0.4,   -0.4,   -0.3,   -0.2,   -0.3,   -0.5,   -0.6,   -0.2,   -0.2,  999.0,    0.3,    0.2,    0.1,    0.3,    0.2,    0.3,    0.2,    0.1,   -0.0,   -0.0,  999.0,  999.0,  999.0,  999.0,  999.0,  999.0,  999.0,  999.0,  999.0,  999.0,  999.0,  999.0,  999.0,  999.0,  999.0,  999.0,  999.0,  999.0,  999.0,  999.0,  999.0,  999.0,  999.0,  999.0,  999.0,  999.0,  999.0,  999.0,  999.0
2001/05/27 22:10,   -0.1,   -0.3,   -0.1,   -0.5,   -0.6,   -0.4,   -0.4,   -0.4,   -0.1,   -0.1,   -0.1,  999.0,   -0.6,   -0.3,   -0.4,   -0.5,   -0.3,   -0.2,   -0.4,   -0.3,    0.2,    0.2,   -0.3,    0.0,   -0.0,   -0.2,    0.3,    0.1,    0.0,   -0.0,   -0.0,  999.0,    0.0,   -0.1,  999.0,  999.0,  999.0,  999.0,  999.0,  999.0,  999.0,  999.0,  999.0,  999.0,  999.0,  999.0,  999.0,  999.0,  999.0,  999.0,  999.0,  999.0,  999.0,  999.0,  999.0,  999.0,  999.0,  999.0,  999.0,  999.0,  999.0,  999.0,  999.0
2001/05/27 22:20,   -0.2,   -0.5,   -0.6,   -0.5,   -0.3,   -0.3,   -0.3,   -0.3,   -0.4,   -0.3,   -0.4,   -0.4,   -0.4,   -0.5,   -0.3,   -0.4,   -0.2,   -0.2,   -0.2,   -0.0,    0.1,    0.4,    0.5,    0.4,    0.4,    0.3,    0.4,    0.4,   -0.0,   -0.0,   -0.1,    0.3,    0.3,  999.0,  999.0,  999.0,  999.0,  999.0,  999.0,  999.0,  999.0,  999.0,  999.0,  999.0,  999.0,  999.0,  999.0,  999.0,  999.0,  999.0,  999.0,  999.0,  999.0,  999.0,  999.0,  999.0,  999.0,  999.0,  999.0,  999.0,  999.0,  999.0,  999.0
2001/05/27 22:30,   -0.3,   -0.5,   -0.3,   -0.6,   -0.4,   -0.4,   -0.5,   -0.0,   -0.5,   -0.4,   -0.4,   -0.7,   -0.4,   -0.3,   -0.2,   -0.1,    0.0,    0.1,    0.2,    0.1,    0.3,  999.0,  999.0,  999.0,  999.0,  999.0,   -0.2,   -0.1,   -0.5,   -0.6,   -0.3,   -0.0,    0.1,  999.0,  999.0,  999.0,  999.0,  999.0,  999.0,  999.0,  999.0,  999.0,  999.0,  999.0,  999.0,  999.0,  999.0,  999.0,  999.0,  999.0,  999.0,  999.0,  999.0,  999.0,  999.0,  999.0,  999.0,  999.0,  999.0,  999.0,  999.0,  999.0,  999.0
2001/05/27 22:40,   -0.2,   -0.4,   -0.2,   -0.6,   -0.2,   -0.3,   -0.3,   -0.5,   -0.6,   -0.6,   -0.7,  999.0,   -0.4,   -0.5,   -0.3,   -0.1,    0.1,  999.0,   -0.1,  999.0,  999.0,  999.0,  999.0,  999.0,  999.0,  999.0,  999.0,   -0.2,   -0.3,   -0.1,  999.0,   -0.1,   -0.2,  999.0,  999.0,  999.0,  999.0,  999.0,  999.0,  999.0,  999.0,  999.0,  999.0,  999.0,  999.0,  999.0,  999.0,  999.0,   -0.3,  999.0,  999.0,  999.0,  999.0,  999.0,  999.0,  999.0,  999.0,  999.0,  999.0,  999.0,  999.0,  999.0,  999.0
2001/05/27 22:50,   -0.2,   -0.2,   -0.1,   -0.4,   -0.2,    0.2,   -0.4,   -0.4,   -0.5,   -0.3,   -0.2,    0.0,   -0.5,   -0.1,   -0.3,   -0.1,   -0.6,  999.0,    0.2,    0.1,  999.0,    0.1,  999.0,    0.1,    0.0,    0.0,    0.2,    0.0,   -0.4,   -0.3,   -0.1,   -0.0,    0.1,  999.0,  999.0,  999.0,  999.0,  999.0,  999.0,  999.0,  999.0,  999.0,  999.0,  999.0,  999.0,  999.0,  999.0,  999.0,  999.0,  999.0,  999.0,  999.0,  999.0,  999.0,  999.0,  999.0,  999.0,  999.0,  999.0,  999.0,  999.0,  999.0,  999.0
2001/05/27 23:00,   -0.4,   -0.5,   -0.9,   -0.7,   -0.8,   -0.4,   -0.4,   -0.4,    0.3,   -0.4,   -0.4,   -0.6,   -0.5,   -0.0,    0.6,   -0.2,  999.0,  999.0,   -0.1,    0.1,    0.0,   -0.1,    0.0,   -0.0,   -0.2,   -0.2,   -0.3,   -0.5,   -0.4,   -0.4,   -0.3,   -0.1,   -0.2,  999.0,  999.0,  999.0,  999.0,  999.0,  999.0,  999.0,  999.0,  999.0,  999.0,  999.0,  999.0,  999.0,  999.0,  999.0,  999.0,  999.0,  999.0,  999.0,  999.0,  999.0,  999.0,  999.0,  999.0,  999.0,  999.0,  999.0,  999.0,  999.0,  999.0
2001/05/27 23:10,   -0.1,   -0.2,   -0.8,   -0.4,   -0.4,   -0.3,    0.2,  999.0,   -0.2,    0.0,   -0.3,   -0.4,   -0.3,   -0.3,   -0.1,  999.0,  999.0,   -0.1,    0.0,    0.0,    0.1,    0.3,    0.4,    0.3,    0.4,    0.1,   -0.0,   -0.1,   -0.2,   -0.2,   -0.0,    0.1,  999.0,  999.0,  999.0,  999.0,  999.0,  999.0,  999.0,  999.0,  999.0,  999.0,  999.0,  999.0,  999.0,  999.0,  999.0,  999.0,  999.0,  999.0,  999.0,  999.0,  999.0,  999.0,  999.0,  999.0,  999.0,  999.0,  999.0,  999.0,  999.0,  999.0,  999.0
2001/05/27 23:20,   -0.5,   -0.4,   -0.5,   -0.2,   -0.4,   -0.4,   -0.6,   -0.5,   -0.5,   -0.6,   -0.2,    0.0,   -0.1,    0.1,    0.1,    0.0,    0.2,    0.2,    0.2,    0.2,    0.4,    0.2,    0.0,    0.0,   -0.1,   -0.3,   -0.5,   -0.5,   -0.2,   -0.0,    0.1,   -0.0,  999.0,  999.0,  999.0,  999.0,  999.0,  999.0,  999.0,  999.0,  999.0,  999.0,  999.0,  999.0,  999.0,  999.0,  999.0,  999.0,  999.0,  999.0,  999.0,  999.0,  999.0,  999.0,  999.0,  999.0,  999.0,  999.0,  999.0,  999.0,  999.0,  999.0,  999.0
2001/05/27 23:30,   -0.2,   -1.4,   -0.5,   -0.3,   -0.4,   -0.0,   -0.3,   -0.1,   -0.2,    0.1,    0.0,    0.2,    0.2,    0.1,    0.4,    0.3,    0.2,    0.4,  999.0,    0.2,    0.3,    0.2,  999.0,  999.0,    0.1,  999.0,    0.0,   -0.1,   -0.1,    0.1,    0.2,  999.0,  999.0,  999.0,  999.0,  999.0,  999.0,  999.0,  999.0,  999.0,  999.0,  999.0,  999.0,  999.0,  999.0,  999.0,  999.0,  999.0,  999.0,  999.0,  999.0,  999.0,  999.0,  999.0,  999.0,  999.0,  999.0,  999.0,  999.0,  999.0,  999.0,  999.0,  999.0
2001/05/27 23:40,   -0.4,   -0.7,   -0.6,   -0.4,    0.1,   -0.2,   -0.1,   -0.3,   -0.3,   -0.1,   -0.2,   -0.2,    0.1,    0.4,    0.4,    0.3,    0.1,    0.1,   -0.0,  999.0,  999.0,  999.0,  999.0,  999.0,  999.0,    0.1,    0.5,    0.4,    0.3,    0.2,    0.2,  999.0,  999.0,  999.0,  999.0,  999.0,  999.0,  999.0,  999.0,  999.0,  999.0,  999.0,  999.0,  999.0,  999.0,  999.0,  999.0,  999.0,  999.0,  999.0,  999.0,  999.0,  999.0,  999.0,  999.0,  999.0,  999.0,  999.0,  999.0,  999.0,  999.0,  999.0,  999.0
2001/05/27 23:50,   -0.1,   -0.3,   -1.4,   -0.4,   -0.3,   -0.4,   -0.3,   -2.7,   -0.0,   -0.0,   -0.1,   -0.6,   -0.1,    0.1,    0.3,   -0.1,    0.1,    0.1,    0.1,    0.3,    0.1,  999.0,  999.0,  999.0,  999.0,  999.0,    0.6,    0.6,    0.4,    0.6,  999.0,  999.0,  999.0,  999.0,  999.0,  999.0,  999.0,  999.0,  999.0,  999.0,  999.0,  999.0,  999.0,  999.0,  999.0,  999.0,  999.0,  999.0,  999.0,  999.0,  999.0,  999.0,  999.0,  999.0,  999.0,  999.0,  999.0,  999.0,  999.0,  999.0,  999.0,  999.0,  999.0
